TNO5555 MMTG-EGPK

Flight info

Callsign TNO5555
Flight time 10h 7m
Altitude 35000
Route KIPAG UJ25 CME UJ9 MID UM215 PISAD DCT CIGAR/N0476F370 DCT SAV DCT RDU DCT SBJ Q75 NELIE DCT TAFFY/N0468F390 N711A IRLOK/M082F400 NATU MOGLO/N0470F390 DCT LUTOV DCT BEL DCT BLACA
Aircraft A332/H-SDE3GHIJ2J3J5M1RVWXY/LB2D1

Departure

Time 2026-04-29 16:59
Airport Angel Albino Corzo International Airport (MMTG)

Arrival

Time 2026-04-30 03:07
Airport Glasgow Prestwick Airport (EGPK)
Time Latitude Longitude Altitude Speed Heading
2026-04-29 16:49 16.55996 -93.01975 1518 ft 0 kts 348°
2026-04-29 16:52 16.55986 -93.01973 1517 ft 3 kts 328°
2026-04-29 16:52 16.55972 -93.01959 1519 ft 3 kts 277°
2026-04-29 16:52 16.55971 -93.01949 1517 ft 0 kts 252°
2026-04-29 16:53 16.55964 -93.01968 1519 ft 8 kts 250°
2026-04-29 16:53 16.55949 -93.02029 1519 ft 8 kts 268°
2026-04-29 16:53 16.55956 -93.02085 1518 ft 11 kts 291°
2026-04-29 16:53 16.56003 -93.02169 1518 ft 13 kts 312°
2026-04-29 16:54 16.56072 -93.02225 1518 ft 12 kts 327°
2026-04-29 16:54 16.56148 -93.02273 1517 ft 17 kts 327°
2026-04-29 16:54 16.56257 -93.02344 1517 ft 18 kts 328°
2026-04-29 16:54 16.56313 -93.02404 1518 ft 2 kts 253°
2026-04-29 16:55 16.56283 -93.02439 1517 ft 12 kts 230°
2026-04-29 16:55 16.56221 -93.02531 1516 ft 20 kts 237°
2026-04-29 16:55 16.56237 -93.02634 1516 ft 13 kts 311°
2026-04-29 16:55 16.56319 -93.02691 1516 ft 20 kts 330°
2026-04-29 16:56 16.56441 -93.02773 1516 ft 20 kts 325°
2026-04-29 16:56 16.56555 -93.02843 1519 ft 18 kts 331°
2026-04-29 16:56 16.56665 -93.02906 1531 ft 18 kts 330°
2026-04-29 16:56 16.56822 -93.03015 1517 ft 34 kts 327°
2026-04-29 16:57 16.57018 -93.03147 1518 ft 33 kts 327°
2026-04-29 16:57 16.57164 -93.03252 1518 ft 17 kts 276°
2026-04-29 16:57 16.57147 -93.03286 1517 ft 2 kts 202°
2026-04-29 16:57 16.57142 -93.03285 1517 ft 2 kts 180°
2026-04-29 16:58 16.57138 -93.03279 1517 ft 1 kts 131°
2026-04-29 16:58 16.57126 -93.03232 1518 ft 6 kts 114°
2026-04-29 16:58 16.57115 -93.03221 1518 ft 0 kts 138°
2026-04-29 16:58 16.57007 -93.03122 1515 ft 50 kts 140°
2026-04-29 16:59 16.56580 -93.02810 1514 ft 97 kts 152°
2026-04-29 16:59 16.56127 -93.02549 1515 ft 129 kts 148°
2026-04-29 16:59 16.55236 -93.01984 1703 ft 159 kts 146°
2026-04-29 16:59 16.54304 -93.01377 2386 ft 162 kts 145°
2026-04-29 17:00 16.53063 -93.00282 2716 ft 190 kts 126°
2026-04-29 17:00 16.52596 -92.98972 2792 ft 209 kts 86°
2026-04-29 17:00 16.53157 -92.97533 2898 ft 230 kts 46°
2026-04-29 17:00 16.54046 -92.96891 2989 ft 244 kts 20°
2026-04-29 17:01 16.55780 -92.96690 3150 ft 262 kts 354°
2026-04-29 17:01 16.58229 -92.97186 3645 ft 272 kts 352°
2026-04-29 17:01 16.59481 -92.97190 3921 ft 274 kts
2026-04-29 17:01 16.61331 -92.96720 4424 ft 275 kts 20°
2026-04-29 17:02 16.63657 -92.95643 5137 ft 277 kts 27°
2026-04-29 17:02 16.65359 -92.94694 5703 ft 278 kts 29°
2026-04-29 17:02 16.67051 -92.93724 6264 ft 278 kts 28°
2026-04-29 17:02 16.68759 -92.92768 6824 ft 279 kts 27°
2026-04-29 17:03 16.70481 -92.91837 7388 ft 279 kts 27°
2026-04-29 17:03 16.71628 -92.91235 7767 ft 278 kts 26°
2026-04-29 17:03 16.73359 -92.90345 8359 ft 277 kts 26°
2026-04-29 17:03 16.75095 -92.89467 8898 ft 279 kts 26°
2026-04-29 17:04 16.77412 -92.88304 9689 ft 279 kts 26°
2026-04-29 17:04 16.79169 -92.87424 10161 ft 283 kts 26°
2026-04-29 17:04 16.80366 -92.86823 10302 ft 292 kts 26°
2026-04-29 17:04 16.82240 -92.85881 10483 ft 306 kts 26°
2026-04-29 17:05 16.84202 -92.84895 10670 ft 320 kts 26°
2026-04-29 17:05 16.86247 -92.83866 10808 ft 333 kts 26°
2026-04-29 17:05 16.88374 -92.82793 10946 ft 346 kts 26°
2026-04-29 17:05 16.91298 -92.81317 11228 ft 359 kts 26°
2026-04-29 17:06 16.92821 -92.80549 11505 ft 361 kts 26°
2026-04-29 17:06 16.95087 -92.79407 11965 ft 363 kts 26°
2026-04-29 17:06 16.97335 -92.78273 12498 ft 364 kts 27°
2026-04-29 17:06 16.99617 -92.77121 12980 ft 365 kts 27°
2026-04-29 17:07 17.01909 -92.75962 13398 ft 368 kts 27°
2026-04-29 17:07 17.04219 -92.74794 13819 ft 370 kts 27°
2026-04-29 17:07 17.06538 -92.73621 14209 ft 371 kts 27°
2026-04-29 17:07 17.08871 -92.72440 14566 ft 374 kts 27°
2026-04-29 17:08 17.11218 -92.71250 14941 ft 376 kts 27°
2026-04-29 17:08 17.13582 -92.70054 15344 ft 378 kts 27°
2026-04-29 17:08 17.15880 -92.68712 15734 ft 379 kts 33°
2026-04-29 17:08 17.18069 -92.67238 16103 ft 381 kts 34°
2026-04-29 17:09 17.20262 -92.65670 16472 ft 383 kts 35°
2026-04-29 17:09 17.22446 -92.64061 16799 ft 385 kts 36°
2026-04-29 17:09 17.24633 -92.62429 17144 ft 387 kts 36°
2026-04-29 17:09 17.26830 -92.60787 17529 ft 389 kts 36°
2026-04-29 17:10 17.29035 -92.59144 17908 ft 390 kts 36°
2026-04-29 17:10 17.31254 -92.57497 18263 ft 392 kts 36°
2026-04-29 17:10 17.33480 -92.55850 18519 ft 394 kts 36°
2026-04-29 17:10 17.35728 -92.54198 18840 ft 395 kts 36°
2026-04-29 17:11 17.37952 -92.52559 19108 ft 397 kts 36°
2026-04-29 17:11 17.40215 -92.50887 19400 ft 399 kts 36°
2026-04-29 17:11 17.42489 -92.49207 19720 ft 401 kts 36°
2026-04-29 17:11 17.44775 -92.47519 20033 ft 403 kts 35°
2026-04-29 17:12 17.47062 -92.45829 20355 ft 403 kts 35°
2026-04-29 17:12 17.49360 -92.44131 20667 ft 404 kts 35°
2026-04-29 17:12 17.51663 -92.42428 20966 ft 406 kts 35°
2026-04-29 17:12 17.53193 -92.41297 21156 ft 407 kts 35°
2026-04-29 17:13 17.56266 -92.39026 21564 ft 409 kts 35°
2026-04-29 17:13 17.58599 -92.37299 21854 ft 411 kts 35°
2026-04-29 17:13 17.60937 -92.35569 22129 ft 412 kts 35°
2026-04-29 17:13 17.63283 -92.33833 22438 ft 414 kts 35°
2026-04-29 17:14 17.65641 -92.32087 22727 ft 415 kts 35°
2026-04-29 17:14 17.68003 -92.30337 23020 ft 417 kts 35°
2026-04-29 17:14 17.70375 -92.28580 23302 ft 419 kts 35°
2026-04-29 17:14 17.72725 -92.26838 23600 ft 419 kts 35°
2026-04-29 17:15 17.75106 -92.25072 23847 ft 421 kts 34°
2026-04-29 17:15 17.77503 -92.23295 24087 ft 422 kts 34°
2026-04-29 17:15 17.79891 -92.21524 24351 ft 423 kts 34°
2026-04-29 17:15 17.82299 -92.19736 24605 ft 425 kts 34°
2026-04-29 17:16 17.84698 -92.17955 24840 ft 426 kts 34°
2026-04-29 17:16 17.87002 -92.16245 25081 ft 427 kts 34°
2026-04-29 17:16 17.89431 -92.14440 25342 ft 428 kts 34°
2026-04-29 17:16 17.91866 -92.12630 25595 ft 430 kts 34°
2026-04-29 17:17 17.94276 -92.10838 25848 ft 431 kts 34°
2026-04-29 17:17 17.96728 -92.09015 26079 ft 433 kts 34°
2026-04-29 17:17 17.99189 -92.07185 26323 ft 434 kts 34°
2026-04-29 17:17 18.01655 -92.05349 26575 ft 435 kts 34°
2026-04-29 17:18 18.04128 -92.03508 26807 ft 437 kts 34°
2026-04-29 17:18 18.06611 -92.01659 27050 ft 438 kts 34°
2026-04-29 17:18 18.09098 -91.99806 27275 ft 439 kts 34°
2026-04-29 17:18 18.11597 -91.97943 27516 ft 441 kts 34°
2026-04-29 17:19 18.14072 -91.96098 27747 ft 442 kts 34°
2026-04-29 17:19 18.16584 -91.94225 27987 ft 443 kts 34°
2026-04-29 17:19 18.19103 -91.92346 28211 ft 445 kts 34°
2026-04-29 17:19 18.21629 -91.90461 28444 ft 446 kts 34°
2026-04-29 17:20 18.24157 -91.88572 28776 ft 445 kts 34°
2026-04-29 17:20 18.26681 -91.86688 29002 ft 446 kts 34°
2026-04-29 17:20 18.29220 -91.84791 29209 ft 448 kts 34°
2026-04-29 17:20 18.31762 -91.82891 29421 ft 449 kts 34°
2026-04-29 17:21 18.34314 -91.80983 29694 ft 449 kts 34°
2026-04-29 17:21 18.36858 -91.79080 30006 ft 448 kts 34°
2026-04-29 17:21 18.39356 -91.77210 30261 ft 447 kts 34°
2026-04-29 17:21 18.41893 -91.75311 30505 ft 447 kts 34°
2026-04-29 17:22 18.44423 -91.73417 30662 ft 448 kts 34°
2026-04-29 17:22 18.46972 -91.71508 30850 ft 449 kts 34°
2026-04-29 17:22 18.49509 -91.69607 31103 ft 448 kts 34°
2026-04-29 17:22 18.52047 -91.67704 31348 ft 447 kts 34°
2026-04-29 17:23 18.54572 -91.65811 31601 ft 446 kts 34°
2026-04-29 17:23 18.57104 -91.63911 31848 ft 445 kts 34°
2026-04-29 17:23 18.59613 -91.62028 32088 ft 445 kts 34°
2026-04-29 17:23 18.62096 -91.60164 32323 ft 444 kts 34°
2026-04-29 17:24 18.64610 -91.58276 32569 ft 443 kts 33°
2026-04-29 17:24 18.67120 -91.56390 32788 ft 443 kts 33°
2026-04-29 17:24 18.69625 -91.54508 33014 ft 442 kts 33°
2026-04-29 17:24 18.72125 -91.52628 33237 ft 441 kts 33°
2026-04-29 17:25 18.74621 -91.50750 33512 ft 440 kts 33°
2026-04-29 17:25 18.77105 -91.48881 33764 ft 438 kts 33°
2026-04-29 17:25 18.79587 -91.47013 33988 ft 437 kts 33°
2026-04-29 17:25 18.82061 -91.45150 34154 ft 437 kts 33°
2026-04-29 17:26 18.84498 -91.43314 34293 ft 437 kts 33°
2026-04-29 17:26 18.86978 -91.41446 34427 ft 438 kts 33°
2026-04-29 17:26 18.89459 -91.39576 34576 ft 438 kts 33°
2026-04-29 17:26 18.91939 -91.37706 34714 ft 438 kts 33°
2026-04-29 17:27 18.94419 -91.35836 34868 ft 438 kts 33°
2026-04-29 17:27 18.96884 -91.33975 34917 ft 432 kts 33°
2026-04-29 17:27 19.01710 -91.30327 34928 ft 424 kts 33°
2026-04-29 17:28 19.06472 -91.26731 34924 ft 424 kts 33°
2026-04-29 17:28 19.11274 -91.23102 34926 ft 424 kts 33°
2026-04-29 17:29 19.16067 -91.19475 34927 ft 423 kts 33°
2026-04-29 17:29 19.20858 -91.15847 34931 ft 423 kts 33°
2026-04-29 17:30 19.25611 -91.12245 34928 ft 423 kts 33°
2026-04-29 17:30 19.30392 -91.08620 34928 ft 423 kts 33°
2026-04-29 17:31 19.35170 -91.04993 34926 ft 423 kts 33°
2026-04-29 17:31 19.39948 -91.01366 34928 ft 423 kts 33°
2026-04-29 17:32 19.44693 -90.97759 34931 ft 423 kts 33°
2026-04-29 17:32 19.49471 -90.94124 34928 ft 423 kts 33°
2026-04-29 17:33 19.54248 -90.90488 34931 ft 423 kts 33°
2026-04-29 17:33 19.58908 -90.86932 34930 ft 398 kts 32°
2026-04-29 17:34 19.63268 -90.83601 34931 ft 380 kts 32°
2026-04-29 17:34 19.67477 -90.80391 34929 ft 364 kts 32°
2026-04-29 17:35 19.70835 -90.77828 34941 ft 352 kts 32°
2026-04-29 17:35 19.73452 -90.75831 34947 ft 342 kts 32°
2026-04-29 17:36 19.77199 -90.72967 34945 ft 327 kts 32°
2026-04-29 17:36 19.80861 -90.70174 34589 ft 325 kts 32°
2026-04-29 17:36 19.82700 -90.68776 34386 ft 324 kts 31°
2026-04-29 17:37 19.84523 -90.67395 34282 ft 321 kts 31°
2026-04-29 17:37 19.86338 -90.66022 34122 ft 320 kts 31°
2026-04-29 17:37 19.88156 -90.64654 33887 ft 321 kts 31°
2026-04-29 17:37 19.89957 -90.63304 33649 ft 321 kts 31°
2026-04-29 17:38 19.91781 -90.61945 33481 ft 319 kts 31°
2026-04-29 17:38 19.93598 -90.60598 33329 ft 318 kts 31°
2026-04-29 17:38 19.95418 -90.59257 33103 ft 319 kts 31°
2026-04-29 17:38 19.97248 -90.57919 32898 ft 319 kts 31°
2026-04-29 17:39 19.99082 -90.56589 32722 ft 318 kts 31°
2026-04-29 17:39 20.00913 -90.55272 32593 ft 317 kts 30°
2026-04-29 17:39 20.02744 -90.53965 32413 ft 317 kts 30°
2026-04-29 17:39 20.04585 -90.52664 32237 ft 317 kts 30°
2026-04-29 17:40 20.06427 -90.51375 32094 ft 317 kts 30°
2026-04-29 17:40 20.10070 -90.48865 31934 ft 311 kts 29°
2026-04-29 17:41 20.13708 -90.46413 31726 ft 308 kts 28°
2026-04-29 17:41 20.15533 -90.45207 31566 ft 309 kts 28°
2026-04-29 17:41 20.17367 -90.44011 31394 ft 310 kts 28°
2026-04-29 17:41 20.19213 -90.42825 31275 ft 309 kts 27°
2026-04-29 17:42 20.21026 -90.41676 31214 ft 307 kts 27°
2026-04-29 17:42 20.24680 -90.39409 31092 ft 302 kts 27°
2026-04-29 17:42 20.26504 -90.38301 30973 ft 302 kts 26°
2026-04-29 17:43 20.28334 -90.37206 30849 ft 302 kts 26°
2026-04-29 17:43 20.32005 -90.35057 30683 ft 299 kts 25°
2026-04-29 17:43 20.33829 -90.34011 30630 ft 297 kts 25°
2026-04-29 17:44 20.35648 -90.32982 30553 ft 296 kts 25°
2026-04-29 17:44 20.37448 -90.31979 30448 ft 296 kts 25°
2026-04-29 17:44 20.39277 -90.30976 30337 ft 296 kts 24°
2026-04-29 17:44 20.41112 -90.29986 30231 ft 296 kts 24°
2026-04-29 17:45 20.42950 -90.29010 30164 ft 294 kts 24°
2026-04-29 17:45 20.44780 -90.28052 30115 ft 292 kts 23°
2026-04-29 17:45 20.46608 -90.27110 30057 ft 291 kts 23°
2026-04-29 17:45 20.48436 -90.26184 29964 ft 291 kts 22°
2026-04-29 17:46 20.50269 -90.25268 29822 ft 292 kts 22°
2026-04-29 17:46 20.52092 -90.24372 29697 ft 292 kts 22°
2026-04-29 17:46 20.53938 -90.23478 29626 ft 291 kts 21°
2026-04-29 17:46 20.55778 -90.22598 29598 ft 288 kts 21°
2026-04-29 17:47 20.57606 -90.21738 29569 ft 287 kts 21°
2026-04-29 17:47 20.59433 -90.20891 29472 ft 286 kts 21°
2026-04-29 17:47 20.61264 -90.20057 29352 ft 287 kts 20°
2026-04-29 17:47 20.63105 -90.19232 29255 ft 287 kts 20°
2026-04-29 17:48 20.64947 -90.18420 29202 ft 286 kts 20°
2026-04-29 17:48 20.66758 -90.17632 29158 ft 284 kts 20°
2026-04-29 17:48 20.68585 -90.16850 29112 ft 283 kts 19°
2026-04-29 17:48 20.70416 -90.16079 29024 ft 283 kts 19°
2026-04-29 17:49 20.72249 -90.15321 28940 ft 283 kts 19°
2026-04-29 17:49 20.74087 -90.14575 28869 ft 282 kts 18°
2026-04-29 17:49 20.75924 -90.13844 28815 ft 281 kts 18°
2026-04-29 17:49 20.77758 -90.13129 28778 ft 280 kts 18°
2026-04-29 17:50 20.79592 -90.12428 28726 ft 279 kts 17°
2026-04-29 17:50 20.81426 -90.11744 28649 ft 279 kts 17°
2026-04-29 17:50 20.83242 -90.11081 28534 ft 281 kts 16°
2026-04-29 17:50 20.85097 -90.10418 28457 ft 281 kts 16°
2026-04-29 17:51 20.86954 -90.09770 28412 ft 280 kts 15°
2026-04-29 17:51 20.88804 -90.09138 28403 ft 278 kts 15°
2026-04-29 17:51 20.90650 -90.08522 28375 ft 277 kts 15°
2026-04-29 17:51 20.92489 -90.07923 28308 ft 277 kts 14°
2026-04-29 17:52 20.94338 -90.07337 28218 ft 278 kts 14°
2026-04-29 17:52 20.95569 -90.06956 28166 ft 278 kts 14°
2026-04-29 17:52 20.98030 -90.06214 28129 ft 277 kts 13°
2026-04-29 17:52 20.99879 -90.05675 28113 ft 275 kts 13°
2026-04-29 17:53 21.01728 -90.05152 28071 ft 274 kts 13°
2026-04-29 17:53 21.03577 -90.04645 28003 ft 275 kts 12°
2026-04-29 17:53 21.05437 -90.04151 27930 ft 275 kts 12°
2026-04-29 17:53 21.07295 -90.03676 27881 ft 275 kts 11°
2026-04-29 17:54 21.09159 -90.03215 27873 ft 274 kts 11°
2026-04-29 17:54 21.11009 -90.02774 27856 ft 272 kts 11°
2026-04-29 17:54 21.12865 -90.02349 27809 ft 272 kts 10°
2026-04-29 17:54 21.14697 -90.01946 27755 ft 273 kts
2026-04-29 17:55 21.16560 -90.01554 27705 ft 273 kts
2026-04-29 17:55 21.18428 -90.01179 27653 ft 273 kts
2026-04-29 17:55 21.20301 -90.00821 27634 ft 272 kts
2026-04-29 17:55 21.22162 -90.00486 27622 ft 271 kts
2026-04-29 17:56 21.24024 -90.00175 27589 ft 271 kts
2026-04-29 17:56 21.25889 -89.99889 27534 ft 271 kts
2026-04-29 17:56 21.27764 -89.99627 27480 ft 272 kts
2026-04-29 17:56 21.29612 -89.99395 27460 ft 271 kts
2026-04-29 17:57 21.31485 -89.99188 27458 ft 270 kts
2026-04-29 17:57 21.33347 -89.99011 27454 ft 268 kts
2026-04-29 17:57 21.35208 -89.98866 27417 ft 268 kts
2026-04-29 17:57 21.37070 -89.98751 27364 ft 269 kts
2026-04-29 17:58 21.38943 -89.98667 27317 ft 269 kts
2026-04-29 17:58 21.40813 -89.98616 27307 ft 268 kts
2026-04-29 17:58 21.42675 -89.98606 27303 ft 267 kts 359°
2026-04-29 17:58 21.44533 -89.98653 27284 ft 267 kts 357°
2026-04-29 17:59 21.46382 -89.98766 27231 ft 267 kts 355°
2026-04-29 17:59 21.48211 -89.98942 27191 ft 268 kts 354°
2026-04-29 17:59 21.50062 -89.99190 27149 ft 268 kts 352°
2026-04-29 17:59 21.51899 -89.99505 27136 ft 267 kts 351°
2026-04-29 18:00 21.53724 -89.99888 27119 ft 267 kts 348°
2026-04-29 18:00 21.55534 -90.00336 27105 ft 267 kts 347°
2026-04-29 18:00 21.57329 -90.00848 27070 ft 267 kts 345°
2026-04-29 18:00 21.59111 -90.01422 27046 ft 267 kts 343°
2026-04-29 18:01 21.60875 -90.02058 27029 ft 267 kts 342°
2026-04-29 18:01 21.62592 -90.02742 27016 ft 267 kts 340°
2026-04-29 18:01 21.64316 -90.03494 26990 ft 267 kts 339°
2026-04-29 18:01 21.66020 -90.04306 26966 ft 268 kts 337°
2026-04-29 18:02 21.67700 -90.05174 26943 ft 268 kts 336°
2026-04-29 18:02 21.69354 -90.06101 26929 ft 268 kts 334°
2026-04-29 18:02 21.70982 -90.07085 26917 ft 268 kts 332°
2026-04-29 18:02 21.72579 -90.08122 26893 ft 269 kts 331°
2026-04-29 18:03 21.74151 -90.09215 26873 ft 269 kts 329°
2026-04-29 18:03 21.75691 -90.10359 26856 ft 269 kts 328°
2026-04-29 18:03 21.77182 -90.11539 26844 ft 270 kts 326°
2026-04-29 18:03 21.78660 -90.12782 26831 ft 270 kts 324°
2026-04-29 18:04 21.80107 -90.14074 26826 ft 270 kts 323°
2026-04-29 18:04 21.81517 -90.15411 26821 ft 270 kts 321°
2026-04-29 18:04 21.82890 -90.16789 26821 ft 270 kts 320°
2026-04-29 18:04 21.84227 -90.18211 26805 ft 270 kts 318°
2026-04-29 18:05 21.85617 -90.19648 26114 ft 290 kts 324°
2026-04-29 18:05 21.87530 -90.20824 23749 ft 363 kts 342°
2026-04-29 18:05 21.90270 -90.21286 22169 ft 426 kts
2026-04-29 18:05 21.93256 -90.20846 22079 ft 441 kts 14°
2026-04-29 18:06 21.96174 -90.19810 22769 ft 437 kts 20°
2026-04-29 18:06 21.98919 -90.18502 23670 ft 428 kts 23°
2026-04-29 18:06 22.01592 -90.17114 24089 ft 426 kts 24°
2026-04-29 18:06 22.04231 -90.15651 24358 ft 427 kts 25°
2026-04-29 18:07 22.06850 -90.14130 24614 ft 429 kts 26°
2026-04-29 18:07 22.09436 -90.12589 24878 ft 431 kts 27°
2026-04-29 18:07 22.12054 -90.11011 25148 ft 432 kts 27°
2026-04-29 18:07 22.14684 -90.09422 25397 ft 434 kts 27°
2026-04-29 18:08 22.17326 -90.07826 25619 ft 436 kts 26°
2026-04-29 18:08 22.19981 -90.06227 25887 ft 437 kts 26°
2026-04-29 18:08 22.22641 -90.04628 26157 ft 438 kts 26°
2026-04-29 18:08 22.25309 -90.03025 26425 ft 440 kts 26°
2026-04-29 18:09 22.27979 -90.01423 26695 ft 441 kts 26°
2026-04-29 18:09 22.30674 -89.99806 26941 ft 443 kts 26°
2026-04-29 18:09 22.33357 -89.98195 27222 ft 444 kts 26°
2026-04-29 18:09 22.36023 -89.96593 27499 ft 444 kts 26°
2026-04-29 18:10 22.38739 -89.94961 27753 ft 446 kts 26°
2026-04-29 18:10 22.41453 -89.93328 27996 ft 447 kts 26°
2026-04-29 18:10 22.44174 -89.91692 28240 ft 449 kts 26°
2026-04-29 18:10 22.46908 -89.90046 28476 ft 451 kts 26°
2026-04-29 18:11 22.49653 -89.88393 28649 ft 454 kts 26°
2026-04-29 18:11 22.52415 -89.86729 28888 ft 455 kts 26°
2026-04-29 18:11 22.55149 -89.85081 29142 ft 456 kts 26°
2026-04-29 18:11 22.57923 -89.83408 29382 ft 457 kts 26°
2026-04-29 18:12 22.60701 -89.81732 29614 ft 459 kts 26°
2026-04-29 18:12 22.63495 -89.80046 29840 ft 460 kts 26°
2026-04-29 18:12 22.66290 -89.78358 30085 ft 460 kts 26°
2026-04-29 18:12 22.69087 -89.76667 30376 ft 459 kts 26°
2026-04-29 18:13 22.71868 -89.74985 30685 ft 457 kts 26°
2026-04-29 18:13 22.74642 -89.73306 30970 ft 456 kts 26°
2026-04-29 18:13 22.77399 -89.71638 31271 ft 454 kts 26°
2026-04-29 18:13 22.80119 -89.69991 31518 ft 454 kts 26°
2026-04-29 18:14 22.82879 -89.68320 31762 ft 454 kts 26°
2026-04-29 18:14 22.85631 -89.66653 32046 ft 452 kts 26°
2026-04-29 18:14 22.88377 -89.64988 32346 ft 451 kts 26°
2026-04-29 18:14 22.91107 -89.63332 32646 ft 449 kts 26°
2026-04-29 18:15 22.93830 -89.61680 32929 ft 448 kts 26°
2026-04-29 18:15 22.96547 -89.60030 33195 ft 447 kts 26°
2026-04-29 18:15 22.99257 -89.58385 33472 ft 446 kts 26°
2026-04-29 18:15 23.01962 -89.56741 33744 ft 445 kts 25°
2026-04-29 18:16 23.04619 -89.55126 33989 ft 444 kts 25°
2026-04-29 18:16 23.07308 -89.53491 34199 ft 443 kts 25°
2026-04-29 18:16 23.09994 -89.51857 34396 ft 442 kts 25°
2026-04-29 18:16 23.12681 -89.50222 34570 ft 442 kts 25°
2026-04-29 18:17 23.15365 -89.48588 34730 ft 443 kts 25°
2026-04-29 18:17 23.18046 -89.46954 34913 ft 442 kts 25°
2026-04-29 18:17 23.20731 -89.45318 34987 ft 442 kts 25°
2026-04-29 18:18 23.26057 -89.42069 34994 ft 442 kts 25°
2026-04-29 18:18 23.31418 -89.38796 34996 ft 442 kts 25°
2026-04-29 18:19 23.36774 -89.35523 34996 ft 442 kts 25°
2026-04-29 18:19 23.42129 -89.32248 34996 ft 442 kts 25°
2026-04-29 18:20 23.47479 -89.28974 34996 ft 447 kts 25°
2026-04-29 18:20 23.52897 -89.25654 34999 ft 445 kts 25°
2026-04-29 18:21 23.58268 -89.22355 35000 ft 442 kts 25°
2026-04-29 18:21 23.63627 -89.19065 34998 ft 442 kts 25°
2026-04-29 18:22 23.68953 -89.15793 34995 ft 442 kts 25°
2026-04-29 18:22 23.74313 -89.12496 34996 ft 442 kts 25°
2026-04-29 18:23 23.79678 -89.09193 35001 ft 443 kts 25°
2026-04-29 18:23 23.85040 -89.05888 35001 ft 443 kts 25°
2026-04-29 18:24 23.90367 -89.02602 35000 ft 443 kts 25°
2026-04-29 18:24 23.95733 -88.99288 35003 ft 443 kts 25°
2026-04-29 18:25 24.01097 -88.95973 35006 ft 443 kts 25°
2026-04-29 18:25 24.06459 -88.92655 35005 ft 443 kts 25°
2026-04-29 18:26 24.11828 -88.89330 35006 ft 444 kts 25°
2026-04-29 18:26 24.17165 -88.86022 35005 ft 444 kts 25°
2026-04-29 18:27 24.22540 -88.82687 35005 ft 444 kts 25°
2026-04-29 18:27 24.27911 -88.79350 35005 ft 444 kts 25°
2026-04-29 18:28 24.33241 -88.76037 35004 ft 444 kts 25°
2026-04-29 18:28 24.38612 -88.72694 35016 ft 444 kts 25°
2026-04-29 18:29 24.43982 -88.69349 35009 ft 444 kts 25°
2026-04-29 18:29 24.49363 -88.65993 35007 ft 445 kts 25°
2026-04-29 18:30 24.54715 -88.62654 35004 ft 449 kts 25°
2026-04-29 18:30 24.60200 -88.59231 35006 ft 457 kts 25°
2026-04-29 18:31 24.65772 -88.55749 35007 ft 465 kts 25°
2026-04-29 18:31 24.71396 -88.52224 35007 ft 458 kts 25°
2026-04-29 18:32 24.76785 -88.48832 35015 ft 444 kts 25°
2026-04-29 18:32 24.84835 -88.43785 35009 ft 444 kts 25°
2026-04-29 18:33 24.90207 -88.40414 35010 ft 445 kts 25°
2026-04-29 18:33 24.95550 -88.37054 35010 ft 445 kts 25°
2026-04-29 18:34 25.00010 -88.34246 35016 ft 445 kts 25°
2026-04-29 18:34 25.06299 -88.30282 35017 ft 446 kts 25°
2026-04-29 18:35 25.11682 -88.26887 35010 ft 446 kts 25°
2026-04-29 18:35 25.17026 -88.23511 35006 ft 446 kts 25°
2026-04-29 18:36 25.22409 -88.20109 35010 ft 446 kts 25°
2026-04-29 18:36 25.27789 -88.16704 35013 ft 446 kts 25°
2026-04-29 18:37 25.33170 -88.13295 35015 ft 446 kts 24°
2026-04-29 18:37 25.38560 -88.09878 35015 ft 447 kts 24°
2026-04-29 18:38 25.43920 -88.06475 35011 ft 447 kts 24°
2026-04-29 18:38 25.49352 -88.03026 35012 ft 455 kts 25°
2026-04-29 18:39 25.54852 -87.99528 35014 ft 452 kts 25°
2026-04-29 18:39 25.60270 -87.96071 35015 ft 447 kts 25°
2026-04-29 18:40 25.65625 -87.92657 35019 ft 448 kts 24°
2026-04-29 18:40 25.71037 -87.89206 35015 ft 449 kts 24°
2026-04-29 18:41 25.81874 -87.82280 35017 ft 449 kts 24°
2026-04-29 18:42 25.87252 -87.78836 35017 ft 449 kts 24°
2026-04-29 18:42 25.92669 -87.75365 35018 ft 449 kts 25°
2026-04-29 18:43 25.98086 -87.71890 35003 ft 450 kts 24°
2026-04-29 18:43 26.03516 -87.68403 35024 ft 451 kts 24°
2026-04-29 18:44 26.08922 -87.64927 35022 ft 452 kts 24°
2026-04-29 18:44 26.14359 -87.61427 35025 ft 452 kts 25°
2026-04-29 18:45 26.19798 -87.57922 35018 ft 452 kts 25°
2026-04-29 18:45 26.25236 -87.54414 35023 ft 452 kts 24°
2026-04-29 18:46 26.30645 -87.50922 35017 ft 452 kts 24°
2026-04-29 18:46 26.36086 -87.47404 35023 ft 453 kts 24°
2026-04-29 18:47 26.41535 -87.43878 35027 ft 452 kts 24°
2026-04-29 18:47 26.46978 -87.40351 35022 ft 452 kts 25°
2026-04-29 18:48 26.52422 -87.36820 35024 ft 452 kts 25°
2026-04-29 18:48 26.57825 -87.33312 35026 ft 453 kts 24°
2026-04-29 18:49 26.63291 -87.29761 35025 ft 457 kts 25°
2026-04-29 18:49 26.68802 -87.26177 35023 ft 459 kts 25°
2026-04-29 18:50 26.74319 -87.22580 35023 ft 459 kts 25°
2026-04-29 18:50 26.79795 -87.19007 35021 ft 459 kts 25°
2026-04-29 18:51 26.85313 -87.15403 35032 ft 459 kts 25°
2026-04-29 18:51 26.90832 -87.11796 35023 ft 460 kts 25°
2026-04-29 18:52 26.96354 -87.08182 35025 ft 460 kts 25°
2026-04-29 18:52 27.01878 -87.04562 35024 ft 460 kts 25°
2026-04-29 18:53 27.07401 -87.00939 35024 ft 460 kts 25°
2026-04-29 18:53 27.12887 -86.97336 35023 ft 460 kts 25°
2026-04-29 18:54 27.18413 -86.93703 35025 ft 460 kts 25°
2026-04-29 18:54 27.23962 -86.90052 35025 ft 463 kts 25°
2026-04-29 18:55 27.29522 -86.86388 35018 ft 464 kts 25°
2026-04-29 18:55 27.35053 -86.82737 35024 ft 464 kts 25°
2026-04-29 18:56 27.40614 -86.79063 35022 ft 464 kts 25°
2026-04-29 18:56 27.46218 -86.75360 35024 ft 471 kts 25°
2026-04-29 18:57 27.51917 -86.71592 35021 ft 476 kts 25°
2026-04-29 18:57 27.57511 -86.67872 35027 ft 465 kts 25°
2026-04-29 18:58 27.63064 -86.64182 35027 ft 463 kts 25°
2026-04-29 18:58 27.68619 -86.60494 35025 ft 464 kts 25°
2026-04-29 18:59 27.74177 -86.56799 35026 ft 464 kts 25°
2026-04-29 18:59 27.79696 -86.53124 35028 ft 463 kts 25°
2026-04-29 19:00 27.85244 -86.49424 35031 ft 463 kts 25°
2026-04-29 19:00 27.90795 -86.45717 35031 ft 463 kts 25°
2026-04-29 19:01 27.96347 -86.42005 35027 ft 463 kts 25°
2026-04-29 19:01 28.01895 -86.38291 35036 ft 463 kts 25°
2026-04-29 19:02 28.06500 -86.35205 35024 ft 462 kts 25°
2026-04-29 19:02 28.12926 -86.30893 35028 ft 461 kts 25°
2026-04-29 19:03 28.18450 -86.27183 35028 ft 462 kts 25°
2026-04-29 19:03 28.23973 -86.23469 35023 ft 462 kts 25°
2026-04-29 19:04 28.29456 -86.19776 35028 ft 462 kts 25°
2026-04-29 19:04 28.34977 -86.16053 35030 ft 460 kts 26°
2026-04-29 19:05 28.40456 -86.12353 35033 ft 457 kts 25°
2026-04-29 19:05 28.45914 -86.08664 35029 ft 457 kts 25°
2026-04-29 19:06 28.51375 -86.04971 35034 ft 457 kts 26°
2026-04-29 19:07 28.59530 -85.99444 35035 ft 457 kts 26°
2026-04-29 19:07 28.64987 -85.95740 35029 ft 457 kts 26°
2026-04-29 19:08 28.70445 -85.92031 35029 ft 457 kts 26°
2026-04-29 19:08 28.75903 -85.88317 35029 ft 457 kts 26°
2026-04-29 19:09 28.81326 -85.84622 35036 ft 457 kts 26°
2026-04-29 19:09 28.86783 -85.80900 35034 ft 457 kts 26°
2026-04-29 19:10 28.92242 -85.77173 35037 ft 458 kts 26°
2026-04-29 19:10 28.97719 -85.73429 35031 ft 460 kts 26°
2026-04-29 19:11 29.03172 -85.69696 35028 ft 460 kts 26°
2026-04-29 19:11 29.08657 -85.65934 35037 ft 460 kts 26°
2026-04-29 19:12 29.14138 -85.62172 35037 ft 460 kts 26°
2026-04-29 19:12 29.19620 -85.58405 35040 ft 460 kts 26°
2026-04-29 19:13 29.25080 -85.54649 35039 ft 461 kts 26°
2026-04-29 19:13 29.30571 -85.50865 35039 ft 461 kts 26°
2026-04-29 19:14 29.36065 -85.47075 35040 ft 461 kts 26°
2026-04-29 19:14 29.41562 -85.43278 35038 ft 461 kts 26°
2026-04-29 19:15 29.47017 -85.39505 35054 ft 460 kts 25°
2026-04-29 19:15 29.52487 -85.35715 35042 ft 458 kts 25°
2026-04-29 19:16 29.57939 -85.31934 35043 ft 458 kts 25°
2026-04-29 19:16 29.63393 -85.28149 35039 ft 458 kts 25°
2026-04-29 19:17 29.68846 -85.24359 35045 ft 458 kts 25°
2026-04-29 19:17 29.74294 -85.20567 35049 ft 458 kts 25°
2026-04-29 19:18 29.79733 -85.16774 35043 ft 457 kts 24°
2026-04-29 19:18 29.85130 -85.13008 35042 ft 456 kts 24°
2026-04-29 19:19 29.90563 -85.09214 35042 ft 456 kts 24°
2026-04-29 19:19 29.95990 -85.05418 35040 ft 456 kts 24°
2026-04-29 19:20 30.01424 -85.01612 35032 ft 458 kts 24°
2026-04-29 19:20 30.06876 -84.97788 35026 ft 458 kts 24°
2026-04-29 19:21 30.12285 -84.93988 35010 ft 458 kts 24°
2026-04-29 19:21 30.17733 -84.90156 35010 ft 458 kts 24°
2026-04-29 19:22 30.23174 -84.86325 35018 ft 458 kts 24°
2026-04-29 19:22 30.28621 -84.82484 35017 ft 458 kts 24°
2026-04-29 19:23 30.34063 -84.78642 35006 ft 460 kts 24°
2026-04-29 19:23 30.39533 -84.74776 35011 ft 460 kts 24°
2026-04-29 19:24 30.44960 -84.70933 35007 ft 460 kts 24°
2026-04-29 19:24 30.50427 -84.67058 35001 ft 460 kts 24°
2026-04-29 19:25 30.55893 -84.63181 35007 ft 461 kts 25°
2026-04-29 19:25 30.61375 -84.59285 35005 ft 462 kts 25°
2026-04-29 19:26 30.66813 -84.55413 35000 ft 462 kts 25°
2026-04-29 19:26 30.72289 -84.51509 34997 ft 462 kts 25°
2026-04-29 19:27 30.77761 -84.47603 34995 ft 462 kts 25°
2026-04-29 19:27 30.83232 -84.43694 34996 ft 462 kts 25°
2026-04-29 19:28 30.88708 -84.39775 34995 ft 462 kts 24°
2026-04-29 19:28 30.94186 -84.35851 34998 ft 462 kts 24°
2026-04-29 19:29 30.99625 -84.31948 34989 ft 462 kts 24°
2026-04-29 19:29 31.05104 -84.28012 34992 ft 462 kts 25°
2026-04-29 19:30 31.10590 -84.24068 34982 ft 464 kts 25°
2026-04-29 19:30 31.16084 -84.20109 34981 ft 464 kts 25°
2026-04-29 19:31 31.21584 -84.16139 34982 ft 465 kts 25°
2026-04-29 19:31 31.27046 -84.12193 34983 ft 465 kts 25°
2026-04-29 19:32 31.32543 -84.08216 34985 ft 465 kts 25°
2026-04-29 19:32 31.38039 -84.04234 34998 ft 465 kts 25°
2026-04-29 19:33 31.43540 -84.00244 34999 ft 466 kts 24°
2026-04-29 19:33 31.49019 -83.96265 34997 ft 467 kts 24°
2026-04-29 19:34 31.54531 -83.92254 35001 ft 467 kts 24°
2026-04-29 19:34 31.60046 -83.88239 34987 ft 467 kts 25°
2026-04-29 19:35 31.65571 -83.84208 34997 ft 470 kts 25°
2026-04-29 19:35 31.71141 -83.80147 34982 ft 479 kts 25°
2026-04-29 19:36 31.76853 -83.75972 34974 ft 488 kts 25°
2026-04-29 19:36 31.82570 -83.71770 34974 ft 476 kts 25°
2026-04-29 19:37 31.88120 -83.67681 34974 ft 469 kts 25°
2026-04-29 19:37 31.93654 -83.63619 34982 ft 469 kts 25°
2026-04-29 19:38 31.99161 -83.59574 34969 ft 470 kts 25°
2026-04-29 19:38 32.04709 -83.55488 34968 ft 470 kts 25°
2026-04-29 19:39 32.10257 -83.51395 34967 ft 470 kts 25°
2026-04-29 19:39 32.14864 -83.47992 34964 ft 471 kts 25°
2026-04-29 19:40 32.21315 -83.43214 34968 ft 472 kts 25°
2026-04-29 19:40 32.26882 -83.39088 34963 ft 473 kts 25°
2026-04-29 19:41 32.32454 -83.34951 34964 ft 473 kts 25°
2026-04-29 19:41 32.38020 -83.30811 34960 ft 473 kts 25°
2026-04-29 19:42 32.42636 -83.27375 34962 ft 473 kts 25°
2026-04-29 19:42 32.49117 -83.22543 34961 ft 474 kts 25°
2026-04-29 19:43 32.54708 -83.18370 34962 ft 475 kts 25°
2026-04-29 19:43 32.60299 -83.14190 34966 ft 475 kts 25°
2026-04-29 19:44 32.64948 -83.10711 34959 ft 475 kts 25°
2026-04-29 19:44 32.70538 -83.06517 34980 ft 476 kts 25°
2026-04-29 19:45 32.76135 -83.02311 34956 ft 477 kts 25°
2026-04-29 19:45 32.81747 -82.98090 34951 ft 477 kts 25°
2026-04-29 19:46 32.87317 -82.93893 34955 ft 477 kts 25°
2026-04-29 19:46 32.92930 -82.89657 34954 ft 477 kts 25°
2026-04-29 19:47 32.98541 -82.85418 34950 ft 478 kts 25°
2026-04-29 19:47 33.04165 -82.81163 34949 ft 479 kts 25°
2026-04-29 19:48 33.09794 -82.76897 34949 ft 480 kts 25°
2026-04-29 19:48 33.15386 -82.72653 34947 ft 479 kts 25°
2026-04-29 19:49 33.21008 -82.68376 34948 ft 479 kts 25°
2026-04-29 19:49 33.26625 -82.64098 34959 ft 479 kts 25°
2026-04-29 19:50 33.32247 -82.59811 34968 ft 479 kts 25°
2026-04-29 19:50 33.37828 -82.55549 34978 ft 479 kts 25°
2026-04-29 19:51 33.43446 -82.51250 34990 ft 479 kts 25°
2026-04-29 19:51 33.49063 -82.46946 34941 ft 480 kts 25°
2026-04-29 19:52 33.54687 -82.42632 34943 ft 480 kts 25°
2026-04-29 19:52 33.60282 -82.38332 34944 ft 481 kts 26°
2026-04-29 19:53 33.65929 -82.33987 34946 ft 483 kts 26°
2026-04-29 19:53 33.71583 -82.29627 34962 ft 483 kts 25°
2026-04-29 19:54 33.80074 -82.23065 34927 ft 484 kts 25°
2026-04-29 19:54 33.85695 -82.18713 34928 ft 484 kts 25°
2026-04-29 19:55 33.91351 -82.14328 34925 ft 484 kts 25°
2026-04-29 19:55 33.97010 -82.09933 34962 ft 484 kts 25°
2026-04-29 19:56 34.02665 -82.05536 34942 ft 484 kts 25°
2026-04-29 19:56 34.08292 -82.01152 34945 ft 485 kts 25°
2026-04-29 19:57 34.13955 -81.96733 34934 ft 485 kts 25°
2026-04-29 19:57 34.19614 -81.92310 34940 ft 485 kts 25°
2026-04-29 19:58 34.25274 -81.87878 34930 ft 485 kts 25°
2026-04-29 19:58 34.30935 -81.83440 34935 ft 485 kts 25°
2026-04-29 19:59 34.36558 -81.79023 34937 ft 485 kts 25°
2026-04-29 19:59 34.42213 -81.74574 34933 ft 485 kts 25°
2026-04-29 20:00 34.47870 -81.70116 34915 ft 485 kts 24°
2026-04-29 20:00 34.53529 -81.65650 34903 ft 486 kts 24°
2026-04-29 20:01 34.59205 -81.61166 34899 ft 487 kts 25°
2026-04-29 20:01 34.64845 -81.56699 34894 ft 487 kts 25°
2026-04-29 20:02 34.70493 -81.52212 34939 ft 483 kts 24°
2026-04-29 20:02 34.75175 -81.48493 34901 ft 485 kts 24°
2026-04-29 20:03 34.81795 -81.43231 34907 ft 487 kts 24°
2026-04-29 20:03 34.87419 -81.38747 34910 ft 487 kts 24°
2026-04-29 20:04 34.93080 -81.34226 34914 ft 487 kts 24°
2026-04-29 20:04 34.98750 -81.29691 34895 ft 488 kts 24°
2026-04-29 20:05 35.04445 -81.25135 34892 ft 490 kts 25°
2026-04-29 20:05 35.10143 -81.20561 34893 ft 490 kts 25°
2026-04-29 20:06 35.15799 -81.16010 34886 ft 490 kts 25°
2026-04-29 20:06 35.21497 -81.11420 34885 ft 491 kts 25°
2026-04-29 20:07 35.27208 -81.06814 34897 ft 492 kts 25°
2026-04-29 20:07 35.32912 -81.02204 34886 ft 492 kts 25°
2026-04-29 20:08 35.37664 -80.98359 34887 ft 492 kts 25°
2026-04-29 20:08 35.44305 -80.92976 34907 ft 493 kts 25°
2026-04-29 20:09 35.50042 -80.88321 34904 ft 496 kts 25°
2026-04-29 20:09 35.55797 -80.83637 34899 ft 496 kts 25°
2026-04-29 20:10 35.61554 -80.78941 34884 ft 496 kts 25°
2026-04-29 20:10 35.67259 -80.74281 34888 ft 496 kts 25°
2026-04-29 20:11 35.73015 -80.69573 34883 ft 496 kts 25°
2026-04-29 20:11 35.78761 -80.64865 34884 ft 496 kts 25°
2026-04-29 20:12 35.84509 -80.60147 34888 ft 496 kts 25°
2026-04-29 20:12 35.90252 -80.55425 34887 ft 497 kts 25°
2026-04-29 20:13 35.95983 -80.50708 34885 ft 498 kts 26°
2026-04-29 20:13 36.01749 -80.45948 34879 ft 498 kts 26°
2026-04-29 20:14 36.07505 -80.41189 34878 ft 499 kts 26°
2026-04-29 20:14 36.13275 -80.36409 34895 ft 499 kts 26°
2026-04-29 20:15 36.19017 -80.31650 34877 ft 501 kts 26°
2026-04-29 20:15 36.24804 -80.26839 34888 ft 501 kts 26°
2026-04-29 20:16 36.30594 -80.22016 34893 ft 502 kts 26°
2026-04-29 20:16 36.36383 -80.17186 34899 ft 502 kts 26°
2026-04-29 20:17 36.42178 -80.12346 34892 ft 503 kts 26°
2026-04-29 20:17 36.47943 -80.07519 34894 ft 503 kts 26°
2026-04-29 20:18 36.53749 -80.02648 34894 ft 503 kts 26°
2026-04-29 20:18 36.59550 -79.97771 34926 ft 503 kts 26°
2026-04-29 20:19 36.65356 -79.92884 34914 ft 504 kts 26°
2026-04-29 20:19 36.71174 -79.87978 34911 ft 505 kts 26°
2026-04-29 20:20 36.76944 -79.83102 34903 ft 505 kts 26°
2026-04-29 20:20 36.82756 -79.78181 34895 ft 505 kts 26°
2026-04-29 20:21 36.88571 -79.73251 34887 ft 506 kts 26°
2026-04-29 20:21 36.94395 -79.68301 34884 ft 506 kts 27°
2026-04-29 20:22 37.00172 -79.63383 34887 ft 506 kts 27°
2026-04-29 20:22 37.05993 -79.58418 34891 ft 507 kts 27°
2026-04-29 20:23 37.11831 -79.53430 34890 ft 508 kts 27°
2026-04-29 20:23 37.17666 -79.48434 34893 ft 508 kts 27°
2026-04-29 20:24 37.23504 -79.43425 34889 ft 508 kts 27°
2026-04-29 20:24 37.29303 -79.38442 34887 ft 509 kts 27°
2026-04-29 20:25 37.35144 -79.33413 34888 ft 509 kts 27°
2026-04-29 20:25 37.40986 -79.28372 34892 ft 509 kts 27°
2026-04-29 20:26 37.46823 -79.23325 34926 ft 509 kts 27°
2026-04-29 20:26 37.52632 -79.18295 34889 ft 510 kts 27°
2026-04-29 20:27 37.57535 -79.14041 34891 ft 511 kts 27°
2026-04-29 20:27 37.64327 -79.08135 34891 ft 510 kts 27°
2026-04-29 20:28 37.70176 -79.03040 34899 ft 511 kts 27°
2026-04-29 20:28 37.75983 -78.97973 34889 ft 511 kts 28°
2026-04-29 20:29 37.81837 -78.92854 34890 ft 512 kts 28°
2026-04-29 20:29 37.87690 -78.87724 34885 ft 512 kts 28°
2026-04-29 20:30 37.93540 -78.82588 34881 ft 512 kts 28°
2026-04-29 20:30 37.99390 -78.77442 34887 ft 512 kts 28°
2026-04-29 20:31 38.05197 -78.72323 34881 ft 512 kts 28°
2026-04-29 20:31 38.11040 -78.67162 34906 ft 511 kts 28°
2026-04-29 20:32 38.16887 -78.61989 34879 ft 513 kts 28°
2026-04-29 20:32 38.22743 -78.56797 34880 ft 513 kts 28°
2026-04-29 20:33 38.28557 -78.51631 34876 ft 513 kts 28°
2026-04-29 20:33 38.34416 -78.46415 34890 ft 514 kts 28°
2026-04-29 20:34 38.40285 -78.41181 34880 ft 516 kts 28°
2026-04-29 20:34 38.46168 -78.35920 34874 ft 516 kts 28°
2026-04-29 20:35 38.52006 -78.30689 34864 ft 517 kts 28°
2026-04-29 20:35 38.57891 -78.25405 34868 ft 517 kts 28°
2026-04-29 20:36 38.63778 -78.20113 34868 ft 517 kts 28°
2026-04-29 20:36 38.69652 -78.14820 34860 ft 517 kts 28°
2026-04-29 20:37 38.75539 -78.09505 34883 ft 517 kts 29°
2026-04-29 20:37 38.81384 -78.04218 34856 ft 519 kts 29°
2026-04-29 20:38 38.87283 -77.98869 34856 ft 520 kts 29°
2026-04-29 20:38 38.93184 -77.93505 34856 ft 519 kts 29°
2026-04-29 20:39 38.99059 -77.88153 34863 ft 517 kts 29°
2026-04-29 20:39 39.04931 -77.82795 34857 ft 517 kts 29°
2026-04-29 20:40 39.10797 -77.77432 34885 ft 517 kts 29°
2026-04-29 20:40 39.16661 -77.72061 34911 ft 517 kts 30°
2026-04-29 20:41 39.22526 -77.66676 34885 ft 517 kts 30°
2026-04-29 20:41 39.28381 -77.61289 34889 ft 517 kts 30°
2026-04-29 20:42 39.34194 -77.55929 34891 ft 517 kts 29°
2026-04-29 20:42 39.40049 -77.50519 34892 ft 517 kts 30°
2026-04-29 20:43 39.45896 -77.45105 34892 ft 516 kts 30°
2026-04-29 20:43 39.51735 -77.39688 34905 ft 516 kts 30°
2026-04-29 20:44 39.57574 -77.34259 34926 ft 516 kts 31°
2026-04-29 20:44 39.63337 -77.28886 34893 ft 512 kts 31°
2026-04-29 20:45 39.69109 -77.23496 34890 ft 510 kts 31°
2026-04-29 20:45 39.74885 -77.18094 34893 ft 515 kts 30°
2026-04-29 20:46 39.80717 -77.12631 34888 ft 518 kts 30°
2026-04-29 20:46 39.86562 -77.07138 34894 ft 519 kts 30°
2026-04-29 20:47 39.92374 -77.01662 34905 ft 519 kts 31°
2026-04-29 20:47 39.98208 -76.96155 34907 ft 518 kts 31°
2026-04-29 20:48 40.04054 -76.90626 34913 ft 518 kts 31°
2026-04-29 20:48 40.09889 -76.85096 34881 ft 518 kts 31°
2026-04-29 20:49 40.15727 -76.79552 34915 ft 519 kts 31°
2026-04-29 20:49 40.21533 -76.74025 34891 ft 519 kts 31°
2026-04-29 20:50 40.27354 -76.68471 34887 ft 518 kts 31°
2026-04-29 20:50 40.33179 -76.62901 34898 ft 518 kts 31°
2026-04-29 20:51 40.39004 -76.57321 34895 ft 519 kts 32°
2026-04-29 20:51 40.44810 -76.51747 34898 ft 521 kts 32°
2026-04-29 20:52 40.50649 -76.46127 34898 ft 520 kts 32°
2026-04-29 20:52 40.56470 -76.40511 34886 ft 519 kts 31°
2026-04-29 20:53 40.62311 -76.34867 34874 ft 522 kts 32°
2026-04-29 20:53 40.68131 -76.29230 34880 ft 523 kts 32°
2026-04-29 20:54 40.76918 -76.20691 34890 ft 523 kts 32°
2026-04-29 20:55 40.82777 -76.14983 34918 ft 523 kts 32°
2026-04-29 20:55 40.88595 -76.09302 34916 ft 522 kts 31°
2026-04-29 20:56 40.94428 -76.03593 34932 ft 522 kts 31°
2026-04-29 20:56 41.00267 -75.97868 34919 ft 523 kts 31°
2026-04-29 20:57 41.06121 -75.92113 34927 ft 524 kts 31°
2026-04-29 20:57 41.11962 -75.86358 34928 ft 524 kts 31°
2026-04-29 20:58 41.17811 -75.80582 34904 ft 524 kts 31°
2026-04-29 20:58 41.23649 -75.74804 34899 ft 523 kts 31°
2026-04-29 20:59 41.29470 -75.69026 34897 ft 521 kts 31°
2026-04-29 20:59 41.35283 -75.63247 34898 ft 521 kts 32°
2026-04-29 21:00 41.41052 -75.57501 34900 ft 522 kts 32°
2026-04-29 21:00 41.46864 -75.51696 34903 ft 522 kts 32°
2026-04-29 21:01 41.52667 -75.45886 34919 ft 521 kts 33°
2026-04-29 21:01 41.58452 -75.40071 34913 ft 519 kts 32°
2026-04-29 21:02 41.64224 -75.34271 34923 ft 519 kts 32°
2026-04-29 21:02 41.69955 -75.28499 34926 ft 519 kts 33°
2026-04-29 21:03 41.75717 -75.22679 34918 ft 519 kts 33°
2026-04-29 21:03 41.81481 -75.16842 34925 ft 519 kts 33°
2026-04-29 21:04 41.87240 -75.10997 34927 ft 519 kts 33°
2026-04-29 21:04 41.92957 -75.05181 34909 ft 519 kts 33°
2026-04-29 21:05 41.98705 -74.99320 34924 ft 518 kts 33°
2026-04-29 21:05 42.04440 -74.93457 34935 ft 518 kts 33°
2026-04-29 21:06 42.10200 -74.87556 34915 ft 522 kts 33°
2026-04-29 21:06 42.15971 -74.81629 34917 ft 522 kts 33°
2026-04-29 21:07 42.21704 -74.75726 34939 ft 522 kts 33°
2026-04-29 21:07 42.27484 -74.69765 34916 ft 523 kts 33°
2026-04-29 21:08 42.33266 -74.63788 34902 ft 524 kts 33°
2026-04-29 21:08 42.39053 -74.57789 34923 ft 524 kts 33°
2026-04-29 21:09 42.44844 -74.51769 34904 ft 526 kts 33°
2026-04-29 21:09 42.50644 -74.45728 34899 ft 526 kts 33°
2026-04-29 21:10 42.56446 -74.39666 34914 ft 526 kts 33°
2026-04-29 21:10 42.62203 -74.33647 34892 ft 525 kts 34°
2026-04-29 21:11 42.67974 -74.27585 34883 ft 524 kts 33°
2026-04-29 21:11 42.73744 -74.21519 34893 ft 524 kts 34°
2026-04-29 21:12 42.79508 -74.15445 34885 ft 524 kts 34°
2026-04-29 21:12 42.85259 -74.09369 34881 ft 523 kts 34°
2026-04-29 21:13 42.90971 -74.03318 34900 ft 523 kts 34°
2026-04-29 21:13 42.96707 -73.97225 34882 ft 521 kts 33°
2026-04-29 21:14 43.02418 -73.91145 34884 ft 521 kts 33°
2026-04-29 21:14 43.08128 -73.85054 34887 ft 521 kts 33°
2026-04-29 21:15 43.13835 -73.78949 34874 ft 520 kts 33°
2026-04-29 21:15 43.19524 -73.72849 34863 ft 519 kts 33°
2026-04-29 21:16 43.25174 -73.66776 34865 ft 519 kts 34°
2026-04-29 21:16 43.30836 -73.60675 34850 ft 517 kts 33°
2026-04-29 21:17 43.36479 -73.54578 34851 ft 516 kts 33°
2026-04-29 21:17 43.42118 -73.48474 34874 ft 516 kts 34°
2026-04-29 21:18 43.47746 -73.42367 34861 ft 514 kts 34°
2026-04-29 21:18 43.53316 -73.36307 34869 ft 514 kts 34°
2026-04-29 21:19 43.58931 -73.30183 34870 ft 514 kts 34°
2026-04-29 21:19 43.64518 -73.24074 34873 ft 514 kts 34°
2026-04-29 21:20 43.70146 -73.17908 34876 ft 515 kts 34°
2026-04-29 21:20 43.75716 -73.11788 34874 ft 515 kts 34°
2026-04-29 21:21 43.81306 -73.05630 34869 ft 513 kts 34°
2026-04-29 21:21 43.86895 -72.99459 34883 ft 513 kts 34°
2026-04-29 21:22 43.92476 -72.93277 34893 ft 513 kts 34°
2026-04-29 21:22 43.98033 -72.87108 34901 ft 510 kts 34°
2026-04-29 21:23 44.03567 -72.80952 34919 ft 510 kts 35°
2026-04-29 21:23 44.09062 -72.74818 34932 ft 510 kts 35°
2026-04-29 21:24 44.14569 -72.68665 34932 ft 507 kts 35°
2026-04-29 21:24 44.20060 -72.62520 34934 ft 506 kts 35°
2026-04-29 21:25 44.25544 -72.56361 34933 ft 506 kts 35°
2026-04-29 21:25 44.30975 -72.50245 34908 ft 504 kts 35°
2026-04-29 21:26 44.36430 -72.44089 34891 ft 504 kts 35°
2026-04-29 21:26 44.41885 -72.37916 34890 ft 504 kts 35°
2026-04-29 21:27 44.46402 -72.32792 34892 ft 502 kts 35°
2026-04-29 21:27 44.52739 -72.25586 34882 ft 502 kts 35°
2026-04-29 21:28 44.58117 -72.19457 34901 ft 502 kts 35°
2026-04-29 21:28 44.63514 -72.13287 34931 ft 500 kts 36°
2026-04-29 21:29 44.68908 -72.07108 34933 ft 499 kts 36°
2026-04-29 21:29 44.74285 -72.00929 34922 ft 500 kts 36°
2026-04-29 21:30 44.79657 -71.94728 34915 ft 498 kts 36°
2026-04-29 21:30 44.84984 -71.88581 34914 ft 498 kts 36°
2026-04-29 21:31 44.90343 -71.82391 34923 ft 498 kts 36°
2026-04-29 21:31 44.95697 -71.76185 34892 ft 497 kts 36°
2026-04-29 21:32 45.01018 -71.69998 34908 ft 495 kts 36°
2026-04-29 21:32 45.06293 -71.63848 34910 ft 495 kts 36°
2026-04-29 21:33 45.11599 -71.57647 34922 ft 494 kts 36°
2026-04-29 21:33 45.16888 -71.51452 34912 ft 493 kts 36°
2026-04-29 21:34 45.22169 -71.45249 34907 ft 493 kts 36°
2026-04-29 21:34 45.27415 -71.39074 34907 ft 493 kts 36°
2026-04-29 21:35 45.32696 -71.32840 34913 ft 493 kts 36°
2026-04-29 21:35 45.37971 -71.26597 34911 ft 493 kts 36°
2026-04-29 21:36 45.43241 -71.20346 34927 ft 493 kts 36°
2026-04-29 21:36 45.48461 -71.14135 34924 ft 492 kts 36°
2026-04-29 21:37 45.52829 -71.08929 34927 ft 492 kts 36°
2026-04-29 21:37 45.58963 -71.01600 34932 ft 492 kts 37°
2026-04-29 21:38 45.64200 -70.95325 34920 ft 491 kts 37°
2026-04-29 21:38 45.69384 -70.89097 34917 ft 490 kts 37°
2026-04-29 21:39 45.74603 -70.82812 34915 ft 490 kts 37°
2026-04-29 21:39 45.79815 -70.76519 34930 ft 489 kts 37°
2026-04-29 21:40 45.84994 -70.70250 34930 ft 487 kts 37°
2026-04-29 21:40 45.90166 -70.63973 34928 ft 487 kts 37°
2026-04-29 21:41 45.95301 -70.57728 34927 ft 487 kts 38°
2026-04-29 21:41 46.00460 -70.51435 34929 ft 486 kts 38°
2026-04-29 21:42 46.05611 -70.45138 34926 ft 486 kts 38°
2026-04-29 21:42 46.09888 -70.39896 34952 ft 486 kts 38°
2026-04-29 21:43 46.15903 -70.32506 34936 ft 486 kts 38°
2026-04-29 21:43 46.21040 -70.26175 34933 ft 486 kts 38°
2026-04-29 21:44 46.26145 -70.19870 34930 ft 486 kts 38°
2026-04-29 21:44 46.30445 -70.14546 34931 ft 486 kts 38°
2026-04-29 21:45 46.36404 -70.07149 34930 ft 486 kts 38°
2026-04-29 21:45 46.40662 -70.01850 34933 ft 486 kts 38°
2026-04-29 21:46 46.45782 -69.95463 34934 ft 486 kts 38°
2026-04-29 21:46 46.50893 -69.89072 34930 ft 485 kts 38°
2026-04-29 21:47 46.56828 -69.81628 34930 ft 485 kts 38°
2026-04-29 21:47 46.61098 -69.76259 34933 ft 484 kts 38°
2026-04-29 21:48 46.66187 -69.69845 34940 ft 484 kts 38°
2026-04-29 21:48 46.71238 -69.63462 34938 ft 484 kts 38°
2026-04-29 21:49 46.76330 -69.57012 34948 ft 484 kts 38°
2026-04-29 21:49 46.81413 -69.50556 34953 ft 485 kts 39°
2026-04-29 21:50 46.86493 -69.44087 34948 ft 485 kts 39°
2026-04-29 21:50 46.91582 -69.37589 34949 ft 486 kts 39°
2026-04-29 21:51 46.96635 -69.31120 34946 ft 485 kts 39°
2026-04-29 21:51 47.04250 -69.21340 34940 ft 485 kts 39°
2026-04-29 21:52 47.09320 -69.14806 34958 ft 485 kts 39°
2026-04-29 21:52 47.14388 -69.08259 34965 ft 485 kts 39°
2026-04-29 21:53 47.19417 -69.01745 34957 ft 486 kts 39°
2026-04-29 21:53 47.24490 -68.95155 34948 ft 486 kts 40°
2026-04-29 21:54 47.29551 -68.88564 34951 ft 486 kts 40°
2026-04-29 21:54 47.34613 -68.81955 34959 ft 486 kts 40°
2026-04-29 21:55 47.39646 -68.75366 34952 ft 487 kts 40°
2026-04-29 21:55 47.44713 -68.68715 34968 ft 488 kts 40°
2026-04-29 21:56 47.49785 -68.62039 34972 ft 489 kts 40°
2026-04-29 21:56 47.54870 -68.55327 34989 ft 490 kts 41°
2026-04-29 21:57 47.59927 -68.48635 34990 ft 491 kts 41°
2026-04-29 21:57 47.65011 -68.41887 34993 ft 491 kts 41°
2026-04-29 21:58 47.70093 -68.35126 34992 ft 491 kts 41°
2026-04-29 21:58 47.75179 -68.28340 34986 ft 492 kts 41°
2026-04-29 21:59 47.80233 -68.21578 34981 ft 492 kts 41°
2026-04-29 21:59 47.85320 -68.14752 34981 ft 492 kts 41°
2026-04-29 22:00 47.90406 -68.07910 34977 ft 493 kts 41°
2026-04-29 22:00 47.95495 -68.01044 34977 ft 494 kts 41°
2026-04-29 22:01 48.00590 -67.94151 34970 ft 494 kts 41°
2026-04-29 22:01 48.05645 -67.87296 34972 ft 494 kts 42°
2026-04-29 22:02 48.10730 -67.80378 34969 ft 495 kts 42°
2026-04-29 22:02 48.15817 -67.73438 34963 ft 495 kts 42°
2026-04-29 22:03 48.20902 -67.66481 34968 ft 495 kts 42°
2026-04-29 22:03 48.25950 -67.59557 34962 ft 495 kts 42°
2026-04-29 22:04 48.31032 -67.52566 34954 ft 496 kts 42°
2026-04-29 22:04 48.36108 -67.45563 34952 ft 496 kts 42°
2026-04-29 22:05 48.41188 -67.38536 34957 ft 496 kts 43°
2026-04-29 22:06 48.48761 -67.28021 34964 ft 496 kts 43°
2026-04-29 22:06 48.53823 -67.20968 34972 ft 496 kts 43°
2026-04-29 22:07 48.58886 -67.13893 34976 ft 496 kts 43°
2026-04-29 22:07 48.63907 -67.06858 34970 ft 495 kts 43°
2026-04-29 22:08 48.68952 -66.99767 34980 ft 495 kts 43°
2026-04-29 22:08 48.73997 -66.92658 34979 ft 495 kts 43°
2026-04-29 22:09 48.79036 -66.85533 34991 ft 495 kts 43°
2026-04-29 22:09 48.84040 -66.78438 34991 ft 495 kts 43°
2026-04-29 22:10 48.89071 -66.71289 34990 ft 495 kts 43°
2026-04-29 22:10 48.94095 -66.64129 34993 ft 496 kts 44°
2026-04-29 22:11 48.99124 -66.56940 34993 ft 496 kts 44°
2026-04-29 22:11 49.04144 -66.49741 34983 ft 496 kts 44°
2026-04-29 22:12 49.09129 -66.42572 34996 ft 496 kts 44°
2026-04-29 22:12 49.14180 -66.35287 34999 ft 497 kts 44°
2026-04-29 22:13 49.19184 -66.28047 34999 ft 500 kts 44°
2026-04-29 22:13 49.24232 -66.20724 34994 ft 500 kts 44°
2026-04-29 22:14 49.29277 -66.13383 34993 ft 500 kts 44°
2026-04-29 22:14 49.34319 -66.06024 34994 ft 501 kts 45°
2026-04-29 22:15 49.39370 -65.98631 34987 ft 502 kts 45°
2026-04-29 22:15 49.44379 -65.91277 34988 ft 502 kts 45°
2026-04-29 22:16 49.49416 -65.83860 34992 ft 502 kts 45°
2026-04-29 22:16 49.54462 -65.76407 34988 ft 504 kts 45°
2026-04-29 22:17 49.59514 -65.68922 34991 ft 504 kts 45°
2026-04-29 22:17 49.64565 -65.61417 34989 ft 504 kts 45°
2026-04-29 22:18 49.69573 -65.53954 34994 ft 504 kts 45°
2026-04-29 22:18 49.74618 -65.46411 34996 ft 505 kts 45°
2026-04-29 22:19 49.79661 -65.38849 34999 ft 505 kts 45°
2026-04-29 22:19 49.84698 -65.31272 35012 ft 505 kts 46°
2026-04-29 22:20 49.89732 -65.23677 35018 ft 506 kts 46°
2026-04-29 22:20 49.94739 -65.16099 35020 ft 506 kts 46°
2026-04-29 22:21 49.99775 -65.08455 35029 ft 506 kts 46°
2026-04-29 22:21 50.04798 -65.00807 35043 ft 506 kts 46°
2026-04-29 22:22 50.09827 -64.93124 35049 ft 507 kts 46°
2026-04-29 22:22 50.14822 -64.85471 35071 ft 507 kts 46°
2026-04-29 22:23 50.19848 -64.77746 35082 ft 507 kts 46°
2026-04-29 22:23 50.24871 -64.70002 35094 ft 508 kts 46°
2026-04-29 22:24 50.29894 -64.62233 35089 ft 508 kts 46°
2026-04-29 22:24 50.34884 -64.54490 35103 ft 508 kts 46°
2026-04-29 22:25 50.39894 -64.46693 35112 ft 508 kts 46°
2026-04-29 22:25 50.44903 -64.38873 35109 ft 508 kts 46°
2026-04-29 22:26 50.49905 -64.31039 35122 ft 508 kts 46°
2026-04-29 22:26 50.54864 -64.23249 35118 ft 508 kts 46°
2026-04-29 22:27 50.59854 -64.15383 35123 ft 508 kts 46°
2026-04-29 22:27 50.64837 -64.07503 35119 ft 508 kts 46°
2026-04-29 22:28 50.69816 -63.99606 35118 ft 508 kts 47°
2026-04-29 22:28 50.74753 -63.91748 35119 ft 508 kts 47°
2026-04-29 22:29 50.79719 -63.83822 35123 ft 506 kts 47°
2026-04-29 22:29 50.84659 -63.75910 35105 ft 505 kts 47°
2026-04-29 22:30 50.89583 -63.67999 35130 ft 503 kts 47°
2026-04-29 22:30 50.94454 -63.60148 35133 ft 503 kts 47°
2026-04-29 22:31 50.99352 -63.52227 35129 ft 503 kts 47°
2026-04-29 22:31 51.04253 -63.44278 35127 ft 504 kts 47°
2026-04-29 22:32 51.09150 -63.36311 35128 ft 503 kts 47°
2026-04-29 22:32 51.14007 -63.28382 35128 ft 503 kts 47°
2026-04-29 22:33 51.18886 -63.20390 35128 ft 503 kts 47°
2026-04-29 22:33 51.23765 -63.12373 35132 ft 503 kts 47°
2026-04-29 22:34 51.28639 -63.04339 35130 ft 504 kts 47°
2026-04-29 22:34 51.33507 -62.96288 35130 ft 503 kts 47°
2026-04-29 22:35 51.38327 -62.88291 35126 ft 502 kts 47°
2026-04-29 22:35 51.43170 -62.80229 35121 ft 502 kts 47°
2026-04-29 22:36 51.48003 -62.72157 35121 ft 502 kts 47°
2026-04-29 22:36 51.52838 -62.64056 35114 ft 502 kts 47°
2026-04-29 22:37 51.57655 -62.55959 35124 ft 501 kts 47°
2026-04-29 22:37 51.62432 -62.47904 35119 ft 501 kts 47°
2026-04-29 22:38 51.67238 -62.39771 35110 ft 501 kts 47°
2026-04-29 22:38 51.72030 -62.31635 35110 ft 500 kts 47°
2026-04-29 22:39 51.76812 -62.23494 35105 ft 499 kts 47°
2026-04-29 22:39 51.81541 -62.15412 35095 ft 498 kts 47°
2026-04-29 22:40 51.86295 -62.07260 35100 ft 498 kts 47°
2026-04-29 22:40 51.91045 -61.99090 35099 ft 498 kts 47°
2026-04-29 22:41 51.95785 -61.90910 35095 ft 497 kts 47°
2026-04-29 22:41 52.00513 -61.82722 35095 ft 497 kts 47°
2026-04-29 22:42 52.05237 -61.74517 35090 ft 497 kts 47°
2026-04-29 22:42 52.09954 -61.66294 35088 ft 498 kts 47°
2026-04-29 22:43 52.14667 -61.58053 35085 ft 498 kts 47°
2026-04-29 22:43 52.19352 -61.49833 35081 ft 498 kts 47°
2026-04-29 22:44 52.24053 -61.41556 35080 ft 497 kts 47°
2026-04-29 22:44 52.28748 -61.33263 35080 ft 497 kts 48°
2026-04-29 22:45 52.33432 -61.24961 35077 ft 497 kts 48°
2026-04-29 22:45 52.38109 -61.16644 35077 ft 497 kts 48°
2026-04-29 22:46 52.42747 -61.08369 35070 ft 497 kts 48°
2026-04-29 22:46 52.47413 -61.00014 35064 ft 497 kts 48°
2026-04-29 22:47 52.52073 -60.91644 35062 ft 497 kts 48°
2026-04-29 22:47 52.56724 -60.83261 35061 ft 497 kts 48°
2026-04-29 22:48 52.61376 -60.74849 35059 ft 496 kts 50°
2026-04-29 22:48 52.65989 -60.66475 35065 ft 498 kts 48°
2026-04-29 22:49 52.70641 -60.58006 35058 ft 498 kts 48°
2026-04-29 22:49 52.75280 -60.49528 35059 ft 498 kts 48°
2026-04-29 22:50 52.79886 -60.41084 35051 ft 498 kts 48°
2026-04-29 22:50 52.84523 -60.32555 35047 ft 499 kts 49°
2026-04-29 22:51 52.89162 -60.23989 35049 ft 500 kts 49°
2026-04-29 22:51 52.96118 -60.11091 35050 ft 500 kts 49°
2026-04-29 22:52 53.00716 -60.02529 35048 ft 500 kts 50°
2026-04-29 22:52 53.05351 -59.93866 35047 ft 503 kts 50°
2026-04-29 22:53 53.09996 -59.85158 35041 ft 503 kts 50°
2026-04-29 22:53 53.14629 -59.76440 35036 ft 503 kts 50°
2026-04-29 22:54 53.19227 -59.67756 35041 ft 504 kts 52°
2026-04-29 22:54 53.23872 -59.58949 35034 ft 507 kts 52°
2026-04-29 22:55 53.28523 -59.50103 35029 ft 507 kts 52°
2026-04-29 22:55 53.33175 -59.41225 35039 ft 507 kts 52°
2026-04-29 22:56 53.37787 -59.32392 35033 ft 508 kts 53°
2026-04-29 22:56 53.42435 -59.23453 35035 ft 510 kts 53°
2026-04-29 22:57 53.47089 -59.14473 35033 ft 510 kts 53°
2026-04-29 22:57 53.51726 -59.05494 35025 ft 509 kts 53°
2026-04-29 22:58 53.56352 -58.96504 35026 ft 508 kts 53°
2026-04-29 22:58 53.60936 -58.87562 35018 ft 508 kts 53°
2026-04-29 22:59 53.65540 -58.78546 35013 ft 508 kts 53°
2026-04-29 22:59 53.70137 -58.69515 35017 ft 508 kts 53°
2026-04-29 23:00 53.74731 -58.60451 35012 ft 508 kts 53°
2026-04-29 23:00 53.79323 -58.51357 35011 ft 509 kts 53°
2026-04-29 23:01 53.83891 -58.42281 35002 ft 509 kts 53°
2026-04-29 23:01 53.88473 -58.33148 34996 ft 509 kts 54°
2026-04-29 23:02 53.93050 -58.23988 34994 ft 509 kts 53°
2026-04-29 23:02 53.97630 -58.14784 34988 ft 511 kts 53°
2026-04-29 23:03 54.02179 -58.05611 34998 ft 511 kts 54°
2026-04-29 23:03 54.06748 -57.96363 34992 ft 511 kts 54°
2026-04-29 23:04 54.11314 -57.87086 34985 ft 511 kts 54°
2026-04-29 23:04 54.15880 -57.77773 34987 ft 512 kts 54°
2026-04-29 23:05 54.20446 -57.68426 34986 ft 513 kts 54°
2026-04-29 23:05 54.24976 -57.59119 34986 ft 513 kts 54°
2026-04-29 23:06 54.29527 -57.49733 34989 ft 513 kts 54°
2026-04-29 23:06 54.34072 -57.40322 34989 ft 513 kts 54°
2026-04-29 23:07 54.38606 -57.30898 34997 ft 512 kts 54°
2026-04-29 23:07 54.43130 -57.21459 34994 ft 512 kts 54°
2026-04-29 23:08 54.47611 -57.12074 34985 ft 512 kts 54°
2026-04-29 23:08 54.52056 -57.02460 35002 ft 511 kts 60°
2026-04-29 23:09 54.55195 -56.91647 34987 ft 503 kts 72°
2026-04-29 23:09 54.57760 -56.80443 35003 ft 502 kts 75°
2026-04-29 23:10 54.60202 -56.69167 34986 ft 502 kts 75°
2026-04-29 23:10 54.62622 -56.57954 34998 ft 503 kts 74°
2026-04-29 23:11 54.65075 -56.46629 35001 ft 504 kts 74°
2026-04-29 23:11 54.67530 -56.35288 34996 ft 504 kts 74°
2026-04-29 23:12 54.69975 -56.23940 34981 ft 503 kts 74°
2026-04-29 23:12 54.72390 -56.12660 35002 ft 502 kts 74°
2026-04-29 23:13 54.74797 -56.01347 35009 ft 502 kts 74°
2026-04-29 23:13 54.77196 -55.90009 35010 ft 502 kts 74°
2026-04-29 23:14 54.79588 -55.78640 35009 ft 502 kts 74°
2026-04-29 23:14 54.81970 -55.67262 35018 ft 502 kts 74°
2026-04-29 23:15 54.84323 -55.55955 35018 ft 502 kts 74°
2026-04-29 23:15 54.86684 -55.44543 35017 ft 502 kts 74°
2026-04-29 23:16 54.89032 -55.33131 35018 ft 502 kts 74°
2026-04-29 23:16 54.91371 -55.21695 35022 ft 501 kts 73°
2026-04-29 23:17 54.93693 -55.10284 35026 ft 500 kts 74°
2026-04-29 23:17 54.95996 -54.98889 35024 ft 505 kts 74°
2026-04-29 23:18 54.98337 -54.87230 35025 ft 516 kts 73°
2026-04-29 23:18 55.00716 -54.75315 35024 ft 527 kts 73°
2026-04-29 23:19 55.03130 -54.63170 35022 ft 531 kts 73°
2026-04-29 23:19 55.05520 -54.51080 35031 ft 530 kts 74°
2026-04-29 23:20 55.07912 -54.38893 35031 ft 531 kts 74°
2026-04-29 23:20 55.10289 -54.26699 35032 ft 533 kts 73°
2026-04-29 23:21 55.12669 -54.14411 35041 ft 533 kts 74°
2026-04-29 23:21 55.15020 -54.02197 35039 ft 533 kts 74°
2026-04-29 23:22 55.17336 -53.90107 35045 ft 522 kts 74°
2026-04-29 23:22 55.19649 -53.77912 35048 ft 533 kts 74°
2026-04-29 23:23 55.21976 -53.65579 35050 ft 535 kts 74°
2026-04-29 23:23 55.24296 -53.53215 35050 ft 535 kts 74°
2026-04-29 23:24 55.26592 -53.40898 35048 ft 535 kts 74°
2026-04-29 23:24 55.28880 -53.28547 35056 ft 532 kts 73°
2026-04-29 23:25 55.31149 -53.16206 35059 ft 532 kts 74°
2026-04-29 23:25 55.33411 -53.03817 35058 ft 532 kts 73°
2026-04-29 23:26 55.35643 -52.91516 35064 ft 532 kts 73°
2026-04-29 23:26 55.37880 -52.79109 35064 ft 532 kts 74°
2026-04-29 23:27 55.40103 -52.66694 35064 ft 532 kts 74°
2026-04-29 23:27 55.42312 -52.54268 35075 ft 532 kts 74°
2026-04-29 23:28 55.44499 -52.41883 35050 ft 533 kts 73°
2026-04-29 23:28 55.46680 -52.29452 35072 ft 530 kts 73°
2026-04-29 23:29 55.48845 -52.17024 35080 ft 531 kts 73°
2026-04-29 23:29 55.50998 -52.04575 35081 ft 531 kts 74°
2026-04-29 23:30 55.53140 -51.92109 35081 ft 531 kts 74°
2026-04-29 23:30 55.55253 -51.79724 35088 ft 531 kts 74°
2026-04-29 23:31 55.57369 -51.67232 35088 ft 530 kts 74°
2026-04-29 23:31 55.59471 -51.54736 35089 ft 530 kts 74°
2026-04-29 23:32 55.61559 -51.42228 35073 ft 530 kts 74°
2026-04-29 23:32 55.63611 -51.29857 35097 ft 527 kts 74°
2026-04-29 23:33 55.65659 -51.17414 35097 ft 528 kts 74°
2026-04-29 23:33 55.67668 -51.05125 35102 ft 507 kts 74°
2026-04-29 23:34 55.69586 -50.93305 35107 ft 497 kts 74°
2026-04-29 23:34 55.71488 -50.81496 35105 ft 499 kts 74°
2026-04-29 23:35 55.73371 -50.69733 35094 ft 499 kts 75°
2026-04-29 23:35 55.75254 -50.57880 35105 ft 499 kts 74°
2026-04-29 23:36 55.77131 -50.45994 35105 ft 500 kts 74°
2026-04-29 23:36 55.78995 -50.34097 35104 ft 499 kts 74°
2026-04-29 23:37 55.80840 -50.22245 35120 ft 497 kts 74°
2026-04-29 23:37 55.82657 -50.10482 35118 ft 497 kts 74°
2026-04-29 23:38 55.84479 -49.98609 35120 ft 497 kts 74°
2026-04-29 23:38 55.86291 -49.86707 35104 ft 499 kts 74°
2026-04-29 23:39 55.88095 -49.74777 35117 ft 499 kts 74°
2026-04-29 23:39 55.89876 -49.62916 35128 ft 499 kts 74°
2026-04-29 23:40 55.91656 -49.50965 35111 ft 499 kts 75°
2026-04-29 23:40 55.93425 -49.39008 35129 ft 499 kts 74°
2026-04-29 23:41 55.95181 -49.27042 35134 ft 498 kts 74°
2026-04-29 23:41 55.96912 -49.15158 35128 ft 498 kts 74°
2026-04-29 23:42 55.98644 -49.03185 35130 ft 498 kts 74°
2026-04-29 23:42 56.00363 -48.91204 35131 ft 498 kts 74°
2026-04-29 23:43 56.02073 -48.79194 35140 ft 498 kts 75°
2026-04-29 23:43 56.03771 -48.67176 35132 ft 499 kts 74°
2026-04-29 23:44 56.05449 -48.55209 35138 ft 500 kts 74°
2026-04-29 23:44 56.07130 -48.43127 35138 ft 500 kts 75°
2026-04-29 23:45 56.08796 -48.31050 35140 ft 499 kts 74°
2026-04-29 23:45 56.10444 -48.19016 35138 ft 496 kts 75°
2026-04-29 23:46 56.12065 -48.07076 35148 ft 497 kts 74°
2026-04-29 23:46 56.13693 -47.95002 35143 ft 499 kts 74°
2026-04-29 23:47 56.15312 -47.82891 35144 ft 499 kts 75°
2026-04-29 23:47 56.16919 -47.70771 35152 ft 499 kts 75°
2026-04-29 23:48 56.18502 -47.58726 35152 ft 499 kts 75°
2026-04-29 23:48 56.20085 -47.46588 35170 ft 499 kts 75°
2026-04-29 23:49 56.21659 -47.34419 35151 ft 501 kts 75°
2026-04-29 23:49 56.23222 -47.22230 35162 ft 499 kts 75°
2026-04-29 23:50 56.24757 -47.10152 35162 ft 498 kts 75°
2026-04-29 23:51 56.27051 -46.91916 35170 ft 498 kts 75°
2026-04-29 23:51 56.28566 -46.79747 35182 ft 499 kts 75°
2026-04-29 23:52 56.30071 -46.67546 35170 ft 500 kts 75°
2026-04-29 23:52 56.31558 -46.55390 35170 ft 501 kts 75°
2026-04-29 23:53 56.33044 -46.43126 35181 ft 501 kts 75°
2026-04-29 23:53 56.34516 -46.30869 35181 ft 500 kts 75°
2026-04-29 23:54 56.35973 -46.18628 35182 ft 498 kts 75°
2026-04-29 23:54 56.37403 -46.06500 35190 ft 497 kts 75°
2026-04-29 23:55 56.38832 -45.94285 35188 ft 498 kts 75°
2026-04-29 23:55 56.40250 -45.82045 35186 ft 498 kts 75°
2026-04-29 23:56 56.41656 -45.69796 35187 ft 498 kts 75°
2026-04-29 23:56 56.43040 -45.57626 35198 ft 498 kts 75°
2026-04-29 23:57 56.44422 -45.45358 35198 ft 498 kts 76°
2026-04-29 23:57 56.45791 -45.33080 35195 ft 498 kts 76°
2026-04-29 23:58 56.47149 -45.20795 35200 ft 498 kts 76°
2026-04-29 23:58 56.48487 -45.08554 35205 ft 494 kts 76°
2026-04-29 23:59 56.49809 -44.96356 35206 ft 493 kts 76°
2026-04-29 23:59 56.51110 -44.84242 35221 ft 494 kts 76°
2026-04-30 00:00 56.52409 -44.72016 35206 ft 495 kts 76°
2026-04-30 00:00 56.53695 -44.59794 35209 ft 495 kts 76°
2026-04-30 00:01 56.54974 -44.47516 35204 ft 495 kts 76°
2026-04-30 00:01 56.56230 -44.35337 35211 ft 495 kts 76°
2026-04-30 00:02 56.57484 -44.23057 35211 ft 495 kts 76°
2026-04-30 00:02 56.58514 -44.12858 35215 ft 495 kts 76°
2026-04-30 00:03 56.59952 -43.98488 35208 ft 495 kts 76°
2026-04-30 00:03 56.60964 -43.88272 35219 ft 495 kts 76°
2026-04-30 00:04 56.62366 -43.73960 35216 ft 495 kts 76°
2026-04-30 00:04 56.63559 -43.61635 35216 ft 495 kts 76°
2026-04-30 00:05 56.64542 -43.51383 35245 ft 496 kts 76°
2026-04-30 00:05 56.65713 -43.39040 35222 ft 496 kts 76°
2026-04-30 00:06 56.67062 -43.24657 35219 ft 496 kts 76°
2026-04-30 00:06 56.68024 -43.14282 35219 ft 497 kts 76°
2026-04-30 00:07 56.69151 -43.01996 35223 ft 496 kts 76°
2026-04-30 00:07 56.70270 -42.89647 35225 ft 493 kts 76°
2026-04-30 00:08 56.71376 -42.77316 35228 ft 494 kts 75°
2026-04-30 00:08 56.72475 -42.64937 35231 ft 496 kts 76°
2026-04-30 00:09 56.73561 -42.52533 35232 ft 497 kts 76°
2026-04-30 00:09 56.74630 -42.40180 35229 ft 496 kts 76°
2026-04-30 00:10 56.75692 -42.27760 35227 ft 497 kts 76°
2026-04-30 00:10 56.76744 -42.15296 35245 ft 497 kts 76°
2026-04-30 00:11 56.77785 -42.02825 35233 ft 499 kts 76°
2026-04-30 00:11 56.78816 -41.90316 35230 ft 498 kts 76°
2026-04-30 00:12 56.79823 -41.77915 35231 ft 497 kts 76°
2026-04-30 00:12 56.80823 -41.65457 35235 ft 497 kts 76°
2026-04-30 00:13 56.81814 -41.52964 35233 ft 497 kts 76°
2026-04-30 00:13 56.82791 -41.40470 35237 ft 498 kts 76°
2026-04-30 00:14 56.83754 -41.28005 35240 ft 499 kts 76°
2026-04-30 00:14 56.84710 -41.15444 35242 ft 499 kts 76°
2026-04-30 00:15 56.85653 -41.02877 35235 ft 499 kts 76°
2026-04-30 00:15 56.86585 -40.90298 35230 ft 499 kts 76°
2026-04-30 00:16 56.87501 -40.77738 35252 ft 497 kts 76°
2026-04-30 00:16 56.88397 -40.65284 35243 ft 497 kts 76°
2026-04-30 00:17 56.89287 -40.52744 35235 ft 498 kts 76°
2026-04-30 00:17 56.90166 -40.40177 35244 ft 498 kts 76°
2026-04-30 00:18 56.91032 -40.27602 35241 ft 498 kts 76°
2026-04-30 00:18 56.91879 -40.15108 35241 ft 498 kts 76°
2026-04-30 00:19 56.92720 -40.02525 35247 ft 498 kts 76°
2026-04-30 00:19 56.93548 -39.89930 35246 ft 498 kts 76°
2026-04-30 00:20 56.94366 -39.77309 35237 ft 498 kts 76°
2026-04-30 00:20 56.95162 -39.64763 35241 ft 494 kts 76°
2026-04-30 00:21 56.95940 -39.52351 35249 ft 494 kts 77°
2026-04-30 00:21 56.96713 -39.39842 35248 ft 494 kts 76°
2026-04-30 00:22 56.97474 -39.27311 35247 ft 495 kts 76°
2026-04-30 00:22 56.98222 -39.14771 35241 ft 495 kts 77°
2026-04-30 00:23 56.98952 -39.02296 35245 ft 495 kts 77°
2026-04-30 00:23 56.99676 -38.89730 35247 ft 495 kts 77°
2026-04-30 00:24 57.00386 -38.77170 35243 ft 495 kts 77°
2026-04-30 00:24 57.01085 -38.64586 35247 ft 495 kts 77°
2026-04-30 00:25 57.01762 -38.52126 35245 ft 493 kts 77°
2026-04-30 00:25 57.02432 -38.39609 35246 ft 493 kts 77°
2026-04-30 00:26 57.03090 -38.27086 35247 ft 493 kts 77°
2026-04-30 00:26 57.03737 -38.14534 35252 ft 494 kts 77°
2026-04-30 00:27 57.04371 -38.01969 35255 ft 495 kts 77°
2026-04-30 00:27 57.04990 -37.89456 35255 ft 496 kts 77°
2026-04-30 00:28 57.05601 -37.76834 35256 ft 496 kts 78°
2026-04-30 00:28 57.06198 -37.64213 35256 ft 496 kts 78°
2026-04-30 00:29 57.06783 -37.51579 35248 ft 496 kts 78°
2026-04-30 00:29 57.07350 -37.39058 35290 ft 494 kts 78°
2026-04-30 00:30 57.07910 -37.26449 35262 ft 496 kts 78°
2026-04-30 00:30 57.08458 -37.13812 35257 ft 496 kts 78°
2026-04-30 00:31 57.08993 -37.01159 35253 ft 496 kts 78°
2026-04-30 00:31 57.09512 -36.88590 35253 ft 496 kts 78°
2026-04-30 00:32 57.10022 -36.75925 35250 ft 496 kts 78°
2026-04-30 00:32 57.10519 -36.63260 35251 ft 497 kts 78°
2026-04-30 00:33 57.11005 -36.50565 35254 ft 498 kts 78°
2026-04-30 00:33 57.11478 -36.37841 35247 ft 497 kts 79°
2026-04-30 00:34 57.11930 -36.25280 35253 ft 495 kts 79°
2026-04-30 00:34 57.12375 -36.12628 35248 ft 495 kts 79°
2026-04-30 00:35 57.12808 -35.99988 35285 ft 495 kts 79°
2026-04-30 00:35 57.13229 -35.87315 35257 ft 496 kts 79°
2026-04-30 00:36 57.13633 -35.74735 35255 ft 496 kts 79°
2026-04-30 00:36 57.14027 -35.62054 35253 ft 496 kts 79°
2026-04-30 00:37 57.14409 -35.49370 35257 ft 496 kts 79°
2026-04-30 00:37 57.14778 -35.36684 35245 ft 496 kts 79°
2026-04-30 00:38 57.15132 -35.24089 35250 ft 495 kts 80°
2026-04-30 00:38 57.15474 -35.11439 35257 ft 495 kts 80°
2026-04-30 00:39 57.15805 -34.98782 35254 ft 495 kts 81°
2026-04-30 00:39 57.16123 -34.86117 35255 ft 495 kts 81°
2026-04-30 00:40 57.16427 -34.73449 35248 ft 495 kts 81°
2026-04-30 00:40 57.16717 -34.60866 35289 ft 495 kts 81°
2026-04-30 00:41 57.16997 -34.48164 35250 ft 497 kts 82°
2026-04-30 00:41 57.17264 -34.35438 35252 ft 497 kts 82°
2026-04-30 00:42 57.17518 -34.22713 35254 ft 497 kts 82°
2026-04-30 00:42 57.17757 -34.10092 35254 ft 496 kts 82°
2026-04-30 00:43 57.17985 -33.97408 35255 ft 495 kts 82°
2026-04-30 00:43 57.18201 -33.84719 35253 ft 496 kts 83°
2026-04-30 00:44 57.18405 -33.72004 35248 ft 497 kts 83°
2026-04-30 00:44 57.18593 -33.59365 35246 ft 497 kts 83°
2026-04-30 00:45 57.18770 -33.46640 35247 ft 497 kts 83°
2026-04-30 00:45 57.18934 -33.33907 35238 ft 497 kts 83°
2026-04-30 00:46 57.19086 -33.21167 35264 ft 497 kts 84°
2026-04-30 00:46 57.19226 -33.08425 35241 ft 498 kts 84°
2026-04-30 00:47 57.19351 -32.95730 35239 ft 498 kts 84°
2026-04-30 00:47 57.19464 -32.82950 35247 ft 498 kts 84°
2026-04-30 00:48 57.19564 -32.70176 35247 ft 499 kts 84°
2026-04-30 00:48 57.19652 -32.57389 35247 ft 499 kts 84°
2026-04-30 00:49 57.19726 -32.44682 35237 ft 500 kts 85°
2026-04-30 00:49 57.19788 -32.31848 35246 ft 501 kts 85°
2026-04-30 00:50 57.19837 -32.19004 35244 ft 501 kts 85°
2026-04-30 00:50 57.19872 -32.06156 35243 ft 501 kts 85°
2026-04-30 00:51 57.19894 -31.93405 35235 ft 501 kts 86°
2026-04-30 00:51 57.19904 -31.80568 35244 ft 500 kts 86°
2026-04-30 00:52 57.19900 -31.67741 35243 ft 500 kts 86°
2026-04-30 00:52 57.19883 -31.54913 35241 ft 500 kts 86°
2026-04-30 00:53 57.19854 -31.42083 35244 ft 500 kts 86°
2026-04-30 00:53 57.19811 -31.29241 35244 ft 501 kts 86°
2026-04-30 00:54 57.19755 -31.16496 35256 ft 501 kts 86°
2026-04-30 00:54 57.19685 -31.03753 35258 ft 489 kts 87°
2026-04-30 00:55 57.19602 -30.91331 35242 ft 483 kts 87°
2026-04-30 00:55 57.19466 -30.72862 35243 ft 482 kts 88°
2026-04-30 00:56 57.19358 -30.60523 35248 ft 481 kts 88°
2026-04-30 00:56 57.19237 -30.48183 35247 ft 481 kts 88°
2026-04-30 00:57 57.19105 -30.35847 35253 ft 481 kts 89°
2026-04-30 00:57 57.18960 -30.23530 35236 ft 481 kts 89°
2026-04-30 00:58 57.18802 -30.11212 35243 ft 480 kts 89°
2026-04-30 00:58 57.18634 -29.98988 35241 ft 480 kts 89°
2026-04-30 00:59 57.18453 -29.86686 35239 ft 480 kts 89°
2026-04-30 00:59 57.18261 -29.74371 35262 ft 480 kts 90°
2026-04-30 01:00 57.18056 -29.62045 35247 ft 481 kts 91°
2026-04-30 01:00 57.17840 -29.49807 35248 ft 481 kts 91°
2026-04-30 01:01 57.17610 -29.37491 35242 ft 481 kts 91°
2026-04-30 01:01 57.17368 -29.25154 35252 ft 481 kts 91°
2026-04-30 01:02 57.17115 -29.12842 35241 ft 481 kts 91°
2026-04-30 01:02 57.16852 -29.00608 35251 ft 481 kts 92°
2026-04-30 01:03 57.16574 -28.88287 35239 ft 481 kts 92°
2026-04-30 01:03 57.16284 -28.75966 35244 ft 481 kts 92°
2026-04-30 01:04 57.15982 -28.63654 35242 ft 481 kts 92°
2026-04-30 01:04 57.15668 -28.51341 35239 ft 482 kts 93°
2026-04-30 01:05 57.15344 -28.39094 35239 ft 482 kts 93°
2026-04-30 01:05 57.15006 -28.26761 35240 ft 482 kts 94°
2026-04-30 01:06 57.14655 -28.14429 35237 ft 482 kts 94°
2026-04-30 01:06 57.14292 -28.02098 35240 ft 482 kts 94°
2026-04-30 01:07 57.13919 -27.89854 35246 ft 482 kts 94°
2026-04-30 01:07 57.13532 -27.77531 35239 ft 482 kts 94°
2026-04-30 01:08 57.13133 -27.65207 35249 ft 482 kts 95°
2026-04-30 01:08 57.12723 -27.52886 35239 ft 482 kts 95°
2026-04-30 01:09 57.12303 -27.40659 35246 ft 482 kts 95°
2026-04-30 01:09 57.11867 -27.28345 35243 ft 482 kts 96°
2026-04-30 01:10 57.11420 -27.16026 35238 ft 482 kts 96°
2026-04-30 01:10 57.10960 -27.03715 35244 ft 482 kts 96°
2026-04-30 01:11 57.10492 -26.91493 35234 ft 482 kts 96°
2026-04-30 01:11 57.10010 -26.79213 35245 ft 481 kts 97°
2026-04-30 01:12 57.09516 -26.66940 35230 ft 481 kts 97°
2026-04-30 01:12 57.09010 -26.54675 35249 ft 481 kts 97°
2026-04-30 01:13 57.08495 -26.42486 35246 ft 481 kts 97°
2026-04-30 01:13 57.07966 -26.30228 35230 ft 481 kts 98°
2026-04-30 01:14 57.07426 -26.17998 35235 ft 479 kts 98°
2026-04-30 01:14 57.06874 -26.05801 35242 ft 478 kts 99°
2026-04-30 01:15 57.06316 -25.93719 35237 ft 478 kts 99°
2026-04-30 01:15 57.05742 -25.81561 35237 ft 478 kts 99°
2026-04-30 01:16 57.05156 -25.69394 35243 ft 478 kts 99°
2026-04-30 01:16 57.04563 -25.57331 35228 ft 478 kts 100°
2026-04-30 01:17 57.03956 -25.45191 35235 ft 476 kts 101°
2026-04-30 01:17 57.03339 -25.33104 35235 ft 476 kts 101°
2026-04-30 01:18 57.02709 -25.21019 35224 ft 476 kts 102°
2026-04-30 01:18 57.02065 -25.08907 35239 ft 478 kts 102°
2026-04-30 01:19 57.01413 -24.96846 35233 ft 478 kts 102°
2026-04-30 01:19 57.00747 -24.84715 35231 ft 478 kts 103°
2026-04-30 01:20 57.00068 -24.72596 35231 ft 478 kts 103°
2026-04-30 01:20 56.99378 -24.60483 35230 ft 477 kts 103°
2026-04-30 01:21 56.98681 -24.48449 35231 ft 477 kts 103°
2026-04-30 01:21 56.97968 -24.36355 35235 ft 477 kts 103°
2026-04-30 01:22 56.97243 -24.24265 35238 ft 477 kts 103°
2026-04-30 01:22 56.96510 -24.12184 35199 ft 476 kts 104°
2026-04-30 01:23 56.95775 -24.00274 35235 ft 472 kts 105°
2026-04-30 01:23 56.95023 -23.88337 35229 ft 471 kts 105°
2026-04-30 01:24 56.94259 -23.76416 35232 ft 471 kts 105°
2026-04-30 01:24 56.93486 -23.64503 35221 ft 471 kts 105°
2026-04-30 01:25 56.92707 -23.52669 35191 ft 471 kts 105°
2026-04-30 01:25 56.91916 -23.40809 35226 ft 468 kts 105°
2026-04-30 01:26 56.91118 -23.29005 35222 ft 467 kts 105°
2026-04-30 01:26 56.90307 -23.17229 35222 ft 467 kts 105°
2026-04-30 01:27 56.89490 -23.05526 35219 ft 467 kts 106°
2026-04-30 01:27 56.88659 -22.93772 35216 ft 466 kts 105°
2026-04-30 01:28 56.87819 -22.82044 35202 ft 465 kts 105°
2026-04-30 01:28 56.86971 -22.70349 35217 ft 463 kts 105°
2026-04-30 01:29 56.86113 -22.58698 35216 ft 462 kts 105°
2026-04-30 01:29 56.85250 -22.47128 35211 ft 462 kts 105°
2026-04-30 01:30 56.84372 -22.35495 35210 ft 462 kts 105°
2026-04-30 01:30 56.83482 -22.23861 35211 ft 462 kts 105°
2026-04-30 01:31 56.82583 -22.12249 35202 ft 462 kts 105°
2026-04-30 01:31 56.81683 -22.00747 35206 ft 460 kts 105°
2026-04-30 01:32 56.80767 -21.89202 35206 ft 460 kts 105°
2026-04-30 01:32 56.79839 -21.77656 35206 ft 460 kts 105°
2026-04-30 01:33 56.78901 -21.66125 35197 ft 460 kts 105°
2026-04-30 01:33 56.77954 -21.54604 35197 ft 459 kts 105°
2026-04-30 01:34 56.77003 -21.43181 35189 ft 458 kts 105°
2026-04-30 01:34 56.76040 -21.31718 35193 ft 456 kts 105°
2026-04-30 01:35 56.75069 -21.20312 35183 ft 456 kts 105°
2026-04-30 01:35 56.74086 -21.08897 35184 ft 456 kts 105°
2026-04-30 01:36 56.73093 -20.97487 35185 ft 456 kts 105°
2026-04-30 01:36 56.72097 -20.86166 35183 ft 456 kts 106°
2026-04-30 01:37 56.71087 -20.74810 35177 ft 452 kts 105°
2026-04-30 01:37 56.70079 -20.63570 35180 ft 449 kts 105°
2026-04-30 01:38 56.69060 -20.52358 35187 ft 449 kts 105°
2026-04-30 01:38 56.68036 -20.41222 35194 ft 449 kts 105°
2026-04-30 01:39 56.66999 -20.30040 35181 ft 449 kts 105°
2026-04-30 01:39 56.65950 -20.18843 35192 ft 449 kts 105°
2026-04-30 01:40 56.64893 -20.07670 35185 ft 447 kts 105°
2026-04-30 01:40 56.63840 -19.96635 35187 ft 445 kts 105°
2026-04-30 01:41 56.62771 -19.85563 35194 ft 445 kts 105°
2026-04-30 01:41 56.61693 -19.74501 35185 ft 445 kts 105°
2026-04-30 01:42 56.60605 -19.63445 35195 ft 445 kts 105°
2026-04-30 01:42 56.59515 -19.52470 35197 ft 445 kts 105°
2026-04-30 01:43 56.58409 -19.41442 35198 ft 445 kts 105°
2026-04-30 01:43 56.57292 -19.30406 35200 ft 444 kts 105°
2026-04-30 01:44 56.56167 -19.19395 35200 ft 444 kts 105°
2026-04-30 01:44 56.55039 -19.08455 35205 ft 444 kts 105°
2026-04-30 01:45 56.53895 -18.97454 35205 ft 444 kts 105°
2026-04-30 01:45 56.52741 -18.86467 35205 ft 444 kts 105°
2026-04-30 01:46 56.51577 -18.75483 35206 ft 443 kts 105°
2026-04-30 01:46 56.50419 -18.64644 35209 ft 440 kts 104°
2026-04-30 01:47 56.49248 -18.53783 35211 ft 439 kts 104°
2026-04-30 01:47 56.48070 -18.42943 35211 ft 439 kts 104°
2026-04-30 01:48 56.46880 -18.32102 35211 ft 439 kts 105°
2026-04-30 01:48 56.45691 -18.21348 35213 ft 439 kts 105°
2026-04-30 01:49 56.44483 -18.10528 35210 ft 439 kts 105°
2026-04-30 01:49 56.43268 -17.99720 35214 ft 439 kts 105°
2026-04-30 01:50 56.42041 -17.88909 35214 ft 439 kts 105°
2026-04-30 01:50 56.40807 -17.78117 35216 ft 439 kts 105°
2026-04-30 01:51 56.39572 -17.67406 35216 ft 439 kts 105°
2026-04-30 01:51 56.38318 -17.56634 35225 ft 438 kts 105°
2026-04-30 01:52 56.37059 -17.45891 35217 ft 436 kts 104°
2026-04-30 01:52 56.35798 -17.35208 35226 ft 435 kts 104°
2026-04-30 01:53 56.34538 -17.24622 35224 ft 435 kts 105°
2026-04-30 01:53 56.33258 -17.13960 35219 ft 435 kts 105°
2026-04-30 01:54 56.31970 -17.03317 35227 ft 435 kts 105°
2026-04-30 01:54 56.30673 -16.92677 35225 ft 435 kts 105°
2026-04-30 01:55 56.29370 -16.82067 35220 ft 435 kts 104°
2026-04-30 01:55 56.28067 -16.71541 35227 ft 432 kts 105°
2026-04-30 01:56 56.26752 -16.60992 35221 ft 432 kts 105°
2026-04-30 01:56 56.25429 -16.50473 35226 ft 431 kts 104°
2026-04-30 01:57 56.24102 -16.39982 35228 ft 430 kts 104°
2026-04-30 01:57 56.22777 -16.29586 35223 ft 430 kts 104°
2026-04-30 01:58 56.21435 -16.19134 35219 ft 430 kts 104°
2026-04-30 01:58 56.20085 -16.08690 35232 ft 428 kts 104°
2026-04-30 01:59 56.18049 -15.93102 35233 ft 427 kts 104°
2026-04-30 02:00 56.16691 -15.82786 35237 ft 427 kts 104°
2026-04-30 02:00 56.15315 -15.72416 35232 ft 427 kts 104°
2026-04-30 02:01 56.13931 -15.62053 35225 ft 427 kts 104°
2026-04-30 02:01 56.12539 -15.51702 35231 ft 426 kts 104°
2026-04-30 02:02 56.11157 -15.41504 35246 ft 422 kts 104°
2026-04-30 02:02 56.09765 -15.31289 35236 ft 422 kts 104°
2026-04-30 02:03 56.08366 -15.21094 35234 ft 422 kts 104°
2026-04-30 02:03 56.06957 -15.10894 35241 ft 422 kts 104°
2026-04-30 02:04 56.05540 -15.00708 35237 ft 422 kts 104°
2026-04-30 02:04 56.04123 -14.90586 35232 ft 422 kts 105°
2026-04-30 02:05 56.02691 -14.80424 35236 ft 421 kts 105°
2026-04-30 02:05 56.01254 -14.70293 35236 ft 420 kts 105°
2026-04-30 02:06 55.99807 -14.60164 35236 ft 421 kts 105°
2026-04-30 02:06 55.98353 -14.50051 35244 ft 421 kts 105°
2026-04-30 02:07 55.96899 -14.39990 35230 ft 422 kts 106°
2026-04-30 02:07 55.95421 -14.29842 35230 ft 422 kts 106°
2026-04-30 02:08 55.93938 -14.19711 35228 ft 422 kts 107°
2026-04-30 02:08 55.92444 -14.09579 35230 ft 423 kts 107°
2026-04-30 02:09 55.90949 -13.99507 35231 ft 423 kts 107°
2026-04-30 02:09 55.89437 -13.89380 35230 ft 423 kts 107°
2026-04-30 02:10 55.87918 -13.79272 35228 ft 423 kts 107°
2026-04-30 02:10 55.86390 -13.69164 35227 ft 423 kts 107°
2026-04-30 02:11 55.84853 -13.59063 35227 ft 423 kts 108°
2026-04-30 02:11 55.83318 -13.49032 35241 ft 423 kts 108°
2026-04-30 02:12 55.81764 -13.38940 35227 ft 423 kts 109°
2026-04-30 02:12 55.80200 -13.28849 35223 ft 423 kts 109°
2026-04-30 02:13 55.78630 -13.18775 35225 ft 423 kts 109°
2026-04-30 02:13 55.77061 -13.08772 35234 ft 423 kts 109°
2026-04-30 02:14 55.75473 -12.98707 35225 ft 423 kts 109°
2026-04-30 02:14 55.73879 -12.88661 35223 ft 423 kts 109°
2026-04-30 02:15 55.72276 -12.78619 35226 ft 423 kts 109°
2026-04-30 02:15 55.70676 -12.68656 35226 ft 423 kts 109°
2026-04-30 02:16 55.69059 -12.58645 35221 ft 423 kts 109°
2026-04-30 02:16 55.67431 -12.48631 35225 ft 423 kts 109°
2026-04-30 02:17 55.65796 -12.38625 35207 ft 423 kts 110°
2026-04-30 02:17 55.64166 -12.28702 35227 ft 422 kts 110°
2026-04-30 02:18 55.62521 -12.18748 35228 ft 421 kts 110°
2026-04-30 02:18 55.60869 -12.08821 35233 ft 421 kts 111°
2026-04-30 02:19 55.59210 -11.98898 35230 ft 421 kts 111°
2026-04-30 02:19 55.57554 -11.89054 35235 ft 421 kts 111°
2026-04-30 02:20 55.55878 -11.79146 35233 ft 421 kts 111°
2026-04-30 02:20 55.54195 -11.69249 35232 ft 421 kts 111°
2026-04-30 02:21 55.52501 -11.59344 35232 ft 421 kts 111°
2026-04-30 02:21 55.50812 -11.49523 35233 ft 421 kts 111°
2026-04-30 02:22 55.49106 -11.39656 35233 ft 421 kts 111°
2026-04-30 02:22 55.47393 -11.29802 35233 ft 421 kts 111°
2026-04-30 02:23 55.45669 -11.19945 35232 ft 421 kts 111°
2026-04-30 02:23 55.43940 -11.10108 35228 ft 421 kts 112°
2026-04-30 02:24 55.42210 -11.00318 35233 ft 421 kts 112°
2026-04-30 02:24 55.40462 -10.90479 35238 ft 421 kts 112°
2026-04-30 02:25 55.38707 -10.80656 35237 ft 421 kts 112°
2026-04-30 02:25 55.36943 -10.70835 35235 ft 421 kts 112°
2026-04-30 02:26 55.35182 -10.61085 35238 ft 421 kts 112°
2026-04-30 02:26 55.33402 -10.51281 35235 ft 421 kts 112°
2026-04-30 02:27 55.31617 -10.41498 35241 ft 421 kts 112°
2026-04-30 02:27 55.29825 -10.31730 35241 ft 421 kts 112°
2026-04-30 02:28 55.28024 -10.21963 35241 ft 421 kts 112°
2026-04-30 02:28 55.26226 -10.12266 35244 ft 421 kts 112°
2026-04-30 02:29 55.24427 -10.02512 35237 ft 422 kts 109°
2026-04-30 02:29 55.23552 -9.92256 35234 ft 428 kts 101°
2026-04-30 02:30 55.22965 -9.81874 35246 ft 428 kts 100°
2026-04-30 02:30 55.22390 -9.71496 35254 ft 428 kts 100°
2026-04-30 02:31 55.21812 -9.61194 35247 ft 428 kts 100°
2026-04-30 02:31 55.21222 -9.50819 35246 ft 428 kts 100°
2026-04-30 02:32 55.20624 -9.40457 35248 ft 428 kts 100°
2026-04-30 02:32 55.20017 -9.30092 35249 ft 428 kts 100°
2026-04-30 02:33 55.19400 -9.19715 35253 ft 428 kts 100°
2026-04-30 02:33 55.18779 -9.09416 35250 ft 428 kts 101°
2026-04-30 02:34 55.18145 -8.99055 35259 ft 428 kts 101°
2026-04-30 02:34 55.17505 -8.88725 35258 ft 427 kts 101°
2026-04-30 02:35 55.16855 -8.78392 35251 ft 427 kts 101°
2026-04-30 02:35 55.16307 -8.69797 35260 ft 427 kts 101°
2026-04-30 02:36 55.15533 -8.57810 35261 ft 427 kts 101°
2026-04-30 02:36 55.14858 -8.47504 35259 ft 427 kts 101°
2026-04-30 02:37 55.14290 -8.38926 35259 ft 427 kts 101°
2026-04-30 02:37 55.13599 -8.28625 35268 ft 427 kts 101°
2026-04-30 02:38 55.12784 -8.16645 35259 ft 427 kts 101°
2026-04-30 02:38 55.12072 -8.06327 35268 ft 428 kts 101°
2026-04-30 02:39 55.11475 -7.97766 35268 ft 427 kts 101°
2026-04-30 02:39 55.10748 -7.87456 35272 ft 427 kts 102°
2026-04-30 02:40 55.10013 -7.77164 35280 ft 427 kts 102°
2026-04-30 02:40 55.09270 -7.66871 35272 ft 427 kts 102°
2026-04-30 02:41 55.08521 -7.56643 35282 ft 428 kts 102°
2026-04-30 02:41 55.07758 -7.46341 35274 ft 428 kts 102°
2026-04-30 02:42 55.06987 -7.36042 35284 ft 428 kts 102°
2026-04-30 02:42 55.06207 -7.25748 35286 ft 428 kts 102°
2026-04-30 02:43 55.05423 -7.15524 35287 ft 428 kts 102°
2026-04-30 02:43 55.04625 -7.05233 35289 ft 429 kts 102°
2026-04-30 02:44 55.03817 -6.94924 35303 ft 429 kts 102°
2026-04-30 02:44 55.03000 -6.84617 35297 ft 429 kts 102°
2026-04-30 02:45 55.02177 -6.74353 35113 ft 435 kts 102°
2026-04-30 02:45 55.01751 -6.69097 34372 ft 441 kts 102°
2026-04-30 02:45 55.01316 -6.63763 33294 ft 450 kts 102°
2026-04-30 02:45 55.00869 -6.58310 32238 ft 458 kts 102°
2026-04-30 02:46 55.00413 -6.52764 31233 ft 465 kts 101°
2026-04-30 02:46 54.99954 -6.47191 30484 ft 465 kts 101°
2026-04-30 02:46 54.99495 -6.41637 29801 ft 462 kts 101°
2026-04-30 02:46 54.99036 -6.36128 29171 ft 457 kts 102°
2026-04-30 02:47 54.98587 -6.30770 28563 ft 452 kts 102°
2026-04-30 02:47 54.98132 -6.25378 27902 ft 446 kts 102°
2026-04-30 02:47 54.97683 -6.20083 26951 ft 437 kts 102°
2026-04-30 02:47 54.97241 -6.14896 25777 ft 431 kts 102°
2026-04-30 02:48 54.96801 -6.09780 24723 ft 423 kts 102°
2026-04-30 02:48 54.96369 -6.04767 23595 ft 416 kts 102°
2026-04-30 02:48 54.95940 -5.99819 22325 ft 410 kts 102°
2026-04-30 02:48 54.95516 -5.94956 21147 ft 403 kts 102°
2026-04-30 02:49 54.95104 -5.90252 19980 ft 398 kts 102°
2026-04-30 02:49 54.94690 -5.85533 19217 ft 384 kts 103°
2026-04-30 02:49 54.94298 -5.81060 18774 ft 364 kts 103°
2026-04-30 02:49 54.93923 -5.76808 18285 ft 348 kts 103°
2026-04-30 02:50 54.93561 -5.72736 17827 ft 336 kts 103°
2026-04-30 02:50 54.93197 -5.68712 17386 ft 338 kts 103°
2026-04-30 02:50 54.92831 -5.64681 16964 ft 337 kts 103°
2026-04-30 02:50 54.92469 -5.60677 16532 ft 334 kts 103°
2026-04-30 02:51 54.92109 -5.56704 16100 ft 331 kts 103°
2026-04-30 02:51 54.91757 -5.52829 15674 ft 328 kts 103°
2026-04-30 02:51 54.91402 -5.48939 15251 ft 325 kts 103°
2026-04-30 02:51 54.91049 -5.45085 14828 ft 321 kts 103°
2026-04-30 02:52 54.90704 -5.41311 14458 ft 311 kts 103°
2026-04-30 02:52 54.90360 -5.37585 13988 ft 314 kts 103°
2026-04-30 02:52 54.90012 -5.33846 13549 ft 313 kts 103°
2026-04-30 02:52 54.89668 -5.30134 13140 ft 310 kts 103°
2026-04-30 02:53 54.89325 -5.26446 12747 ft 307 kts 102°
2026-04-30 02:53 54.89095 -5.22835 12430 ft 305 kts 94°
2026-04-30 02:53 54.89355 -5.19183 12125 ft 308 kts 78°
2026-04-30 02:53 54.90275 -5.15776 11730 ft 317 kts 60°
2026-04-30 02:54 54.91835 -5.13009 11316 ft 327 kts 40°
2026-04-30 02:54 54.93811 -5.11009 10900 ft 329 kts 32°
2026-04-30 02:54 54.95847 -5.09279 10654 ft 322 kts 31°
2026-04-30 02:54 54.97840 -5.07609 10384 ft 315 kts 31°
2026-04-30 02:55 54.99788 -5.05958 10158 ft 307 kts 31°
2026-04-30 02:55 55.01664 -5.04354 10015 ft 293 kts 31°
2026-04-30 02:55 55.03444 -5.02826 9808 ft 279 kts 32°
2026-04-30 02:55 55.05136 -5.01363 9461 ft 273 kts 32°
2026-04-30 02:56 55.06837 -4.99881 9180 ft 274 kts 32°
2026-04-30 02:56 55.08541 -4.98392 8859 ft 273 kts 32°
2026-04-30 02:56 55.10236 -4.96914 8554 ft 271 kts 32°
2026-04-30 02:56 55.11916 -4.95446 8242 ft 270 kts 32°
2026-04-30 02:57 55.13585 -4.93988 8039 ft 264 kts 31°
2026-04-30 02:57 55.15204 -4.92577 7927 ft 255 kts 31°
2026-04-30 02:57 55.16763 -4.91218 7826 ft 246 kts 31°
2026-04-30 02:57 55.18277 -4.89892 7621 ft 241 kts 31°
2026-04-30 02:58 55.19751 -4.88598 7424 ft 239 kts 31°
2026-04-30 02:58 55.21232 -4.87298 7154 ft 237 kts 31°
2026-04-30 02:58 55.22702 -4.86003 7003 ft 237 kts 31°
2026-04-30 02:58 55.24174 -4.84706 6973 ft 237 kts 31°
2026-04-30 02:59 55.25647 -4.83410 6974 ft 236 kts 31°
2026-04-30 02:59 55.27116 -4.82117 6970 ft 236 kts 31°
2026-04-30 02:59 55.28587 -4.80823 6976 ft 237 kts 31°
2026-04-30 02:59 55.30057 -4.79529 6921 ft 237 kts 30°
2026-04-30 03:00 55.31626 -4.78629 6775 ft 241 kts
2026-04-30 03:00 55.33324 -4.78646 6434 ft 247 kts 358°
2026-04-30 03:00 55.35004 -4.78958 6161 ft 246 kts 356°
2026-04-30 03:00 55.36701 -4.79309 5913 ft 244 kts 356°
2026-04-30 03:01 55.38396 -4.79652 5644 ft 244 kts 356°
2026-04-30 03:01 55.40071 -4.79980 5426 ft 241 kts 356°
2026-04-30 03:01 55.41735 -4.80298 5179 ft 240 kts 356°
2026-04-30 03:01 55.43395 -4.80611 4909 ft 240 kts 356°
2026-04-30 03:02 55.45053 -4.80922 4636 ft 239 kts 356°
2026-04-30 03:02 55.46710 -4.81232 4372 ft 239 kts 356°
2026-04-30 03:02 55.48343 -4.81536 4106 ft 239 kts 356°
2026-04-30 03:02 55.49990 -4.81844 3827 ft 237 kts 356°
2026-04-30 03:03 55.51628 -4.82150 3431 ft 236 kts 356°
2026-04-30 03:03 55.54810 -4.82732 3036 ft 234 kts 359°
2026-04-30 03:03 55.56354 -4.82266 2914 ft 217 kts 35°
2026-04-30 03:04 55.57235 -4.80414 2816 ft 187 kts 80°
2026-04-30 03:04 55.57196 -4.78317 2669 ft 169 kts 106°
2026-04-30 03:04 55.56774 -4.76349 2546 ft 165 kts 121°
2026-04-30 03:04 55.56163 -4.74583 2345 ft 167 kts 123°
2026-04-30 03:05 55.55590 -4.72925 2143 ft 152 kts 123°
2026-04-30 03:05 55.55044 -4.71339 1654 ft 153 kts 122°
2026-04-30 03:05 55.54496 -4.69745 1293 ft 148 kts 120°
2026-04-30 03:05 55.53982 -4.68266 1078 ft 135 kts 120°
2026-04-30 03:06 55.53540 -4.66977 894 ft 133 kts 118°
2026-04-30 03:06 55.53066 -4.65605 701 ft 132 kts 117°
2026-04-30 03:06 55.52587 -4.64219 527 ft 132 kts 117°
2026-04-30 03:06 55.52109 -4.62836 338 ft 132 kts 116°
2026-04-30 03:07 55.51632 -4.61451 117 ft 132 kts 116°
2026-04-30 03:07 55.51191 -4.60168 41 ft 119 kts 118°
2026-04-30 03:07 55.50897 -4.59310 48 ft 24 kts 123°
2026-04-30 03:07 55.50886 -4.59265 50 ft 4 kts 94°
2026-04-30 03:08 55.50908 -4.59206 49 ft 12 kts 51°
2026-04-30 03:08 55.50977 -4.58986 48 ft 22 kts 66°
2026-04-30 03:08 55.51040 -4.58740 47 ft 22 kts 65°
2026-04-30 03:08 55.51107 -4.58588 48 ft 1 kts 72°
2026-04-30 03:09 55.51104 -4.58516 48 ft 7 kts 105°
2026-04-30 03:09 55.51100 -4.58501 50 ft 0 kts 116°